Today

Time Wind Dr Wind Spd
mph
Wind Gust
mph
Hum In
%
Humid
%
TempI
F
Temp
F
Raw Bar
in
Tot Rain
in
UV Solar
W/sqm
DailyRain
in
HourRain
in
24HrRain
in
RainRate
in
10/18/19 12:00:29 AM 236 5.0 5.0 51 82 73.2 61.9 29.827 20.21 0.0 0 0.00 0.00 0.00 0.00
10/18/19 12:01:22 AM 236 3.0 5.0 51 82 73.2 61.9 29.827 20.21 0.0 0 0.00 0.00 0.00 0.00
10/18/19 12:02:35 AM 236 4.0 5.0 51 82 73.2 61.9 29.825 20.21 0.0 0 0.00 0.00 0.00 0.00
10/18/19 12:03:24 AM 236 2.0 5.0 51 82 73.2 61.9 29.825 20.21 0.0 0 0.00 0.00 0.00 0.00
10/18/19 12:04:34 AM 236 4.0 5.0 51 82 73.2 61.9 29.827 20.21 0.0 0 0.00 0.00 0.00 0.00
10/18/19 12:05:29 AM 236 4.0 6.0 51 82 73.2 61.9 29.824 20.21 0.0 0 0.00 0.00 0.00 0.00
10/18/19 12:06:21 AM 236 2.0 6.0 51 82 73.2 61.9 29.824 20.21 0.0 0 0.00 0.00 0.00 0.00
10/18/19 12:07:32 AM 236 3.0 6.0 51 82 73.2 61.9 29.825 20.21 0.0 0 0.00 0.00 0.00 0.00
10/18/19 12:08:24 AM 236 3.0 6.0 51 82 73.2 61.8 29.825 20.21 0.0 0 0.00 0.00 0.00 0.00
10/18/19 12:09:34 AM 236 0.0 6.0 51 82 73.3 61.8 29.830 20.21 0.0 0 0.00 0.00 0.00 0.00
10/18/19 12:10:26 AM 236 3.0 6.0 51 82 73.2 61.8 29.830 20.21 0.0 0 0.00 0.00 0.00 0.00
10/18/19 12:11:18 AM 236 3.0 6.0 51 82 73.2 61.8 29.830 20.21 0.0 0 0.00 0.00 0.00 0.00
10/18/19 12:12:31 AM 236 3.0 6.0 51 82 73.2 61.8 29.832 20.21 0.0 0 0.00 0.00 0.00 0.00
10/18/19 12:13:23 AM 236 2.0 6.0 51 82 73.2 61.8 29.832 20.21 0.0 0 0.00 0.00 0.00 0.00
10/18/19 12:14:30 AM 236 4.0 6.0 51 82 73.3 61.8 29.832 20.21 0.0 0 0.00 0.00 0.00 0.00
10/18/19 12:15:25 AM 236 2.0 6.0 51 82 73.3 61.8 29.832 20.21 0.0 0 0.00 0.00 0.00 0.00
10/18/19 12:16:35 AM 236 1.0 6.0 51 82 73.3 61.7 29.832 20.21 0.0 0 0.00 0.00 0.00 0.00
10/18/19 12:17:27 AM 236 3.0 6.0 51 82 73.3 61.7 29.833 20.21 0.0 0 0.00 0.00 0.00 0.00
10/18/19 12:18:19 AM 236 1.0 6.0 51 82 73.3 61.7 29.833 20.21 0.0 0 0.00 0.00 0.00 0.00
10/18/19 12:19:26 AM 236 2.0 6.0 51 82 73.2 61.7 29.830 20.21 0.0 0 0.00 0.00 0.00 0.00
10/18/19 12:20:18 AM 236 2.0 6.0 51 82 73.2 61.7 29.830 20.21 0.0 0 0.00 0.00 0.00 0.00
10/18/19 12:21:31 AM 236 3.0 6.0 51 82 73.3 61.7 29.836 20.21 0.0 0 0.00 0.00 0.00 0.00
10/18/19 12:22:23 AM 236 4.0 6.0 51 82 73.3 61.6 29.836 20.21 0.0 0 0.00 0.00 0.00 0.00
10/18/19 12:23:15 AM 236 4.0 6.0 51 82 73.3 61.6 29.838 20.21 0.0 0 0.00 0.00 0.00 0.00
10/18/19 12:24:26 AM 236 1.0 6.0 51 82 73.2 61.6 29.836 20.21 0.0 0 0.00 0.00 0.00 0.00
10/18/19 12:25:17 AM 236 5.0 6.0 51 82 73.2 61.6 29.836 20.21 0.0 0 0.00 0.00 0.00 0.00
10/18/19 12:26:28 AM 235 4.0 6.0 51 82 73.2 61.5 29.838 20.21 0.0 0 0.00 0.00 0.00 0.00
10/18/19 12:27:20 AM 237 4.0 6.0 51 81 73.2 61.5 29.838 20.21 0.0 0 0.00 0.00 0.00 0.00
10/18/19 12:28:31 AM 238 5.0 6.0 51 81 73.2 61.5 29.837 20.21 0.0 0 0.00 0.00 0.00 0.00
10/18/19 12:29:21 AM 238 4.0 6.0 51 81 73.2 61.5 29.837 20.21 0.0 0 0.00 0.00 0.00 0.00
10/18/19 12:30:30 AM 237 5.0 6.0 51 81 73.2 61.4 29.834 20.21 0.0 0 0.00 0.00 0.00 0.00
10/18/19 12:31:23 AM 238 4.0 8.0 51 81 73.2 61.4 29.834 20.21 0.0 0 0.00 0.00 0.00 0.00
10/18/19 12:32:17 AM 238 1.0 8.0 51 81 73.3 61.4 29.833 20.21 0.0 0 0.00 0.00 0.00 0.00
10/18/19 12:33:28 AM 238 3.0 8.0 51 81 73.3 61.4 29.838 20.21 0.0 0 0.00 0.00 0.00 0.00
10/18/19 12:34:19 AM 238 2.0 8.0 51 81 73.3 61.4 29.838 20.21 0.0 0 0.00 0.00 0.00 0.00
10/18/19 12:35:27 AM 238 3.0 8.0 51 81 73.3 61.3 29.835 20.21 0.0 0 0.00 0.00 0.00 0.00
10/18/19 12:36:21 AM 238 2.0 8.0 51 81 73.3 61.3 29.835 20.21 0.0 0 0.00 0.00 0.00 0.00
10/18/19 12:37:32 AM 238 4.0 8.0 51 81 73.3 61.3 29.839 20.21 0.0 0 0.00 0.00 0.00 0.00
10/18/19 12:38:25 AM 238 4.0 8.0 51 81 73.3 61.3 29.838 20.21 0.0 0 0.00 0.00 0.00 0.00
10/18/19 12:39:16 AM 238 3.0 8.0 51 81 73.3 61.3 29.838 20.21 0.0 0 0.00 0.00 0.00 0.00
10/18/19 12:40:24 AM 238 1.0 8.0 51 81 73.3 61.2 29.836 20.21 0.0 0 0.00 0.00 0.00 0.00
10/18/19 12:41:17 AM 238 3.0 8.0 51 82 73.3 61.2 29.836 20.21 0.0 0 0.00 0.00 0.00 0.00
10/18/19 12:42:29 AM 238 0.0 8.0 51 82 73.3 61.2 29.837 20.21 0.0 0 0.00 0.00 0.00 0.00
10/18/19 12:43:19 AM 238 1.0 8.0 51 82 73.3 61.2 29.837 20.21 0.0 0 0.00 0.00 0.00 0.00
10/18/19 12:44:31 AM 238 0.0 8.0 51 82 73.3 61.2 29.838 20.21 0.0 0 0.00 0.00 0.00 0.00
10/18/19 12:45:24 AM 238 0.0 8.0 51 82 73.3 61.2 29.838 20.21 0.0 0 0.00 0.00 0.00 0.00
10/18/19 12:46:32 AM 238 0.0 8.0 51 82 73.3 61.2 29.838 20.21 0.0 0 0.00 0.00 0.00 0.00
10/18/19 12:47:26 AM 238 0.0 8.0 51 82 73.3 61.2 29.838 20.21 0.0 0 0.00 0.00 0.00 0.00
10/18/19 12:48:16 AM 238 2.0 8.0 51 82 73.3 61.2 29.838 20.21 0.0 0 0.00 0.00 0.00 0.00
10/18/19 12:49:28 AM 238 3.0 8.0 51 82 73.3 61.2 29.838 20.21 0.0 0 0.00 0.00 0.00 0.00
10/18/19 12:50:21 AM 238 3.0 8.0 51 82 73.3 61.2 29.838 20.21 0.0 0 0.00 0.00 0.00 0.00
10/18/19 12:51:30 AM 238 5.0 8.0 51 82 73.3 61.2 29.839 20.21 0.0 0 0.00 0.00 0.00 0.00
10/18/19 12:52:20 AM 238 3.0 8.0 51 82 73.3 61.2 29.839 20.21 0.0 0 0.00 0.00 0.00 0.00
10/18/19 12:53:31 AM 238 4.0 8.0 51 82 73.3 61.2 29.840 20.21 0.0 0 0.00 0.00 0.00 0.00
10/18/19 12:54:25 AM 238 3.0 8.0 51 82 73.3 61.2 29.840 20.21 0.0 0 0.00 0.00 0.00 0.00
10/18/19 12:55:18 AM 238 4.0 8.0 51 82 73.3 61.2 29.840 20.21 0.0 0 0.00 0.00 0.00 0.00
10/18/19 12:56:27 AM 238 2.0 8.0 51 82 73.3 61.2 29.839 20.21 0.0 0 0.00 0.00 0.00 0.00
10/18/19 12:57:17 AM 238 0.0 8.0 51 82 73.3 61.2 29.839 20.21 0.0 0 0.00 0.00 0.00 0.00
10/18/19 12:58:32 AM 238 4.0 8.0 51 81 73.3 61.1 29.843 20.21 0.0 0 0.00 0.00 0.00 0.00
10/18/19 12:59:25 AM 238 3.0 8.0 51 82 73.3 61.1 29.843 20.21 0.0 0 0.00 0.00 0.00 0.00
10/18/19 1:00:37 AM 238 3.0 8.0 51 81 73.3 61.1 29.842 20.21 0.0 0 0.00 0.00 0.00 0.00
10/18/19 1:01:27 AM 248 3.0 8.0 51 81 73.3 61.1 29.843 20.21 0.0 0 0.00 0.00 0.00 0.00
10/18/19 1:02:15 AM 248 3.0 8.0 51 81 73.3 61.1 29.843 20.21 0.0 0 0.00 0.00 0.00 0.00
10/18/19 1:03:26 AM 248 1.0 8.0 51 81 73.3 61.1 29.844 20.21 0.0 0 0.00 0.00 0.00 0.00
10/18/19 1:04:19 AM 248 2.0 8.0 51 81 73.3 61.1 29.844 20.21 0.0 0 0.00 0.00 0.00 0.00
10/18/19 1:05:34 AM 248 2.0 8.0 51 81 73.3 61.1 29.840 20.21 0.0 0 0.00 0.00 0.00 0.00
10/18/19 1:06:25 AM 247 4.0 8.0 51 81 73.3 61.0 29.842 20.21 0.0 0 0.00 0.00 0.00 0.00
10/18/19 1:07:33 AM 248 1.0 8.0 51 81 73.3 61.0 29.841 20.21 0.0 0 0.00 0.00 0.00 0.00
10/18/19 1:08:26 AM 248 0.0 8.0 51 81 73.4 61.0 29.844 20.21 0.0 0 0.00 0.00 0.00 0.00
10/18/19 1:09:16 AM 248 0.0 8.0 51 81 73.4 61.0 29.844 20.21 0.0 0 0.00 0.00 0.00 0.00
10/18/19 1:10:31 AM 248 2.0 8.0 51 81 73.3 61.0 29.844 20.21 0.0 0 0.00 0.00 0.00 0.00
10/18/19 1:11:21 AM 248 0.0 8.0 51 81 73.3 61.0 29.844 20.21 0.0 0 0.00 0.00 0.00 0.00
10/18/19 1:12:30 AM 248 3.0 8.0 51 81 73.4 61.0 29.840 20.21 0.0 0 0.00 0.00 0.00 0.00
10/18/19 1:13:20 AM 248 4.0 8.0 51 81 73.4 61.0 29.840 20.21 0.0 0 0.00 0.00 0.00 0.00
10/18/19 1:14:31 AM 248 2.0 8.0 51 81 73.3 61.0 29.843 20.21 0.0 0 0.00 0.00 0.00 0.00
10/18/19 1:15:25 AM 248 1.0 8.0 51 81 73.4 61.0 29.843 20.21 0.0 0 0.00 0.00 0.00 0.00
10/18/19 1:16:18 AM 248 2.0 8.0 51 81 73.4 61.0 29.842 20.21 0.0 0 0.00 0.00 0.00 0.00
10/18/19 1:17:30 AM 248 1.0 8.0 51 81 73.4 60.9 29.840 20.21 0.0 0 0.00 0.00 0.00 0.00
10/18/19 1:18:17 AM 248 3.0 8.0 51 81 73.4 60.9 29.840 20.21 0.0 0 0.00 0.00 0.00 0.00
10/18/19 1:19:28 AM 248 2.0 8.0 51 81 73.3 60.9 29.842 20.21 0.0 0 0.00 0.00 0.00 0.00
10/18/19 1:20:22 AM 248 3.0 8.0 51 81 73.3 60.9 29.842 20.21 0.0 0 0.00 0.00 0.00 0.00
10/18/19 1:21:36 AM 247 4.0 8.0 51 81 73.3 60.9 29.842 20.21 0.0 0 0.00 0.00 0.00 0.00
10/18/19 1:22:26 AM 247 4.0 8.0 51 81 73.4 60.9 29.843 20.21 0.0 0 0.00 0.00 0.00 0.00
10/18/19 1:23:17 AM 247 4.0 8.0 51 81 73.4 60.9 29.843 20.21 0.0 0 0.00 0.00 0.00 0.00
10/18/19 1:24:29 AM 247 4.0 8.0 51 81 73.4 60.9 29.844 20.21 0.0 0 0.00 0.00 0.00 0.00
10/18/19 1:25:19 AM 247 4.0 8.0 51 81 73.4 60.9 29.844 20.21 0.0 0 0.00 0.00 0.00 0.00
10/18/19 1:26:31 AM 247 4.0 8.0 51 81 73.3 60.9 29.846 20.21 0.0 0 0.00 0.00 0.00 0.00
10/18/19 1:27:24 AM 247 3.0 8.0 51 81 73.3 60.8 29.846 20.21 0.0 0 0.00 0.00 0.00 0.00
10/18/19 1:28:15 AM 247 4.0 8.0 51 81 73.4 60.8 29.843 20.21 0.0 0 0.00 0.00 0.00 0.00
10/18/19 1:29:26 AM 247 2.0 8.0 51 81 73.4 60.8 29.844 20.21 0.0 0 0.00 0.00 0.00 0.00
10/18/19 1:30:17 AM 247 2.0 8.0 51 81 73.4 60.8 29.844 20.21 0.0 0 0.00 0.00 0.00 0.00
10/18/19 1:31:28 AM 247 1.0 8.0 51 81 73.3 60.8 29.848 20.21 0.0 0 0.00 0.00 0.00 0.00
10/18/19 1:32:18 AM 247 0.0 8.0 51 81 73.3 60.8 29.848 20.21 0.0 0 0.00 0.00 0.00 0.00
10/18/19 1:33:29 AM 247 0.0 8.0 51 81 73.4 60.7 29.846 20.21 0.0 0 0.00 0.00 0.00 0.00
10/18/19 1:34:20 AM 247 1.0 8.0 51 81 73.4 60.7 29.846 20.21 0.0 0 0.00 0.00 0.00 0.00
10/18/19 1:35:31 AM 247 1.0 8.0 51 81 73.4 60.7 29.847 20.21 0.0 0 0.00 0.00 0.00 0.00
10/18/19 1:36:24 AM 247 3.0 8.0 51 81 73.4 60.7 29.845 20.21 0.0 0 0.00 0.00 0.00 0.00
10/18/19 1:37:17 AM 247 3.0 8.0 51 81 73.4 60.7 29.845 20.21 0.0 0 0.00 0.00 0.00 0.00
10/18/19 1:38:29 AM 247 4.0 8.0 51 81 73.4 60.7 29.846 20.21 0.0 0 0.00 0.00 0.00 0.00
10/18/19 1:39:19 AM 247 4.0 8.0 51 81 73.4 60.7 29.846 20.21 0.0 0 0.00 0.00 0.00 0.00
10/18/19 1:40:31 AM 247 2.0 8.0 51 81 73.4 60.7 29.843 20.21 0.0 0 0.00 0.00 0.00 0.00
10/18/19 1:41:21 AM 247 2.0 8.0 51 81 73.4 60.6 29.843 20.21 0.0 0 0.00 0.00 0.00 0.00
10/18/19 1:42:36 AM 247 2.0 8.0 51 81 73.4 60.6 29.843 20.21 0.0 0 0.00 0.00 0.00 0.00
10/18/19 1:43:26 AM 247 3.0 8.0 51 81 73.4 60.6 29.843 20.21 0.0 0 0.00 0.00 0.00 0.00
10/18/19 1:44:19 AM 247 3.0 8.0 51 81 73.4 60.6 29.843 20.21 0.0 0 0.00 0.00 0.00 0.00
10/18/19 1:45:28 AM 247 2.0 8.0 51 81 73.4 60.5 29.846 20.21 0.0 0 0.00 0.00 0.00 0.00
10/18/19 1:46:18 AM 247 2.0 8.0 51 81 73.4 60.5 29.846 20.21 0.0 0 0.00 0.00 0.00 0.00
10/18/19 1:47:29 AM 247 2.0 8.0 51 81 73.4 60.5 29.844 20.21 0.0 0 0.00 0.00 0.00 0.00
10/18/19 1:48:22 AM 247 2.0 8.0 51 81 73.4 60.5 29.844 20.21 0.0 0 0.00 0.00 0.00 0.00
10/18/19 1:49:34 AM 247 3.0 8.0 51 81 73.4 60.4 29.843 20.21 0.0 0 0.00 0.00 0.00 0.00
10/18/19 1:50:21 AM 247 3.0 8.0 51 81 73.4 60.4 29.843 20.21 0.0 0 0.00 0.00 0.00 0.00
10/18/19 1:51:32 AM 247 3.0 8.0 51 81 73.4 60.4 29.846 20.21 0.0 0 0.00 0.00 0.00 0.00
10/18/19 1:52:26 AM 247 2.0 8.0 51 81 73.4 60.4 29.848 20.21 0.0 0 0.00 0.00 0.00 0.00
10/18/19 1:53:16 AM 247 1.0 8.0 51 81 73.4 60.3 29.848 20.21 0.0 0 0.00 0.00 0.00 0.00
10/18/19 1:54:31 AM 247 1.0 8.0 51 81 73.4 60.3 29.850 20.21 0.0 0 0.00 0.00 0.00 0.00
10/18/19 1:55:21 AM 247 1.0 8.0 51 82 73.4 60.3 29.850 20.21 0.0 0 0.00 0.00 0.00 0.00
10/18/19 1:56:32 AM 247 0.0 8.0 51 82 73.4 60.3 29.849 20.21 0.0 0 0.00 0.00 0.00 0.00
10/18/19 1:57:22 AM 247 0.0 8.0 51 82 73.4 60.3 29.849 20.21 0.0 0 0.00 0.00 0.00 0.00
10/18/19 1:58:34 AM 247 0.0 8.0 51 82 73.3 60.2 29.849 20.21 0.0 0 0.00 0.00 0.00 0.00
10/18/19 1:59:27 AM 247 0.0 8.0 51 82 73.4 60.2 29.849 20.21 0.0 0 0.00 0.00 0.00 0.00
10/18/19 2:00:20 AM 247 1.0 8.0 51 82 73.4 60.2 29.849 20.21 0.0 0 0.00 0.00 0.00 0.00
10/18/19 2:01:29 AM 247 0.0 8.0 51 82 73.3 60.2 29.847 20.21 0.0 0 0.00 0.00 0.00 0.00
10/18/19 2:02:19 AM 247 0.0 8.0 51 82 73.3 60.2 29.847 20.21 0.0 0 0.00 0.00 0.00 0.00
10/18/19 2:03:34 AM 247 0.0 8.0 51 82 73.3 60.2 29.849 20.21 0.0 0 0.00 0.00 0.00 0.00
10/18/19 2:04:27 AM 247 0.0 8.0 51 82 73.3 60.2 29.848 20.21 0.0 0 0.00 0.00 0.00 0.00
10/18/19 2:05:17 AM 247 1.0 8.0 51 82 73.3 60.1 29.848 20.21 0.0 0 0.00 0.00 0.00 0.00
10/18/19 2:06:26 AM 247 1.0 8.0 51 82 73.3 60.1 29.848 20.21 0.0 0 0.00 0.00 0.00 0.00
10/18/19 2:07:19 AM 247 2.0 8.0 51 82 73.3 60.1 29.848 20.21 0.0 0 0.00 0.00 0.00 0.00
10/18/19 2:08:31 AM 247 2.0 8.0 51 82 73.3 60.1 29.851 20.21 0.0 0 0.00 0.00 0.00 0.00
10/18/19 2:09:24 AM 247 2.0 8.0 51 82 73.3 60.1 29.851 20.21 0.0 0 0.00 0.00 0.00 0.00
10/18/19 2:10:17 AM 247 2.0 8.0 51 82 73.3 60.1 29.851 20.21 0.0 0 0.00 0.00 0.00 0.00
10/18/19 2:11:26 AM 247 1.0 8.0 51 82 73.3 60.0 29.851 20.21 0.0 0 0.00 0.00 0.00 0.00
10/18/19 2:12:16 AM 247 3.0 8.0 51 82 73.3 60.0 29.851 20.21 0.0 0 0.00 0.00 0.00 0.00
10/18/19 2:13:27 AM 247 2.0 8.0 51 82 73.3 60.0 29.854 20.21 0.0 0 0.00 0.00 0.00 0.00
10/18/19 2:14:21 AM 247 1.0 8.0 51 82 73.3 60.0 29.854 20.21 0.0 0 0.00 0.00 0.00 0.00
10/18/19 2:15:35 AM 247 2.0 8.0 51 82 73.3 60.0 29.854 20.21 0.0 0 0.00 0.00 0.00 0.00
10/18/19 2:16:26 AM 247 1.0 8.0 51 82 73.3 59.9 29.854 20.21 0.0 0 0.00 0.00 0.00 0.00
10/18/19 2:17:35 AM 247 0.0 8.0 51 82 73.3 59.9 29.854 20.21 0.0 0 0.00 0.00 0.00 0.00
10/18/19 2:18:25 AM 247 0.0 8.0 51 82 73.3 59.9 29.855 20.21 0.0 0 0.00 0.00 0.00 0.00
10/18/19 2:19:18 AM 247 0.0 8.0 51 82 73.3 59.9 29.855 20.21 0.0 0 0.00 0.00 0.00 0.00
10/18/19 2:20:30 AM 247 0.0 8.0 51 82 73.3 59.9 29.859 20.21 0.0 0 0.00 0.00 0.00 0.00
10/18/19 2:21:23 AM 247 1.0 8.0 51 82 73.3 59.9 29.859 20.21 0.0 0 0.00 0.00 0.00 0.00
10/18/19 2:22:31 AM 247 3.0 8.0 51 82 73.3 59.8 29.859 20.21 0.0 0 0.00 0.00 0.00 0.00
10/18/19 2:23:22 AM 247 0.0 8.0 51 82 73.3 59.8 29.859 20.21 0.0 0 0.00 0.00 0.00 0.00
10/18/19 2:24:33 AM 247 0.0 8.0 51 83 73.3 59.8 29.860 20.21 0.0 0 0.00 0.00 0.00 0.00
10/18/19 2:25:26 AM 247 0.0 8.0 51 83 73.3 59.8 29.860 20.21 0.0 0 0.00 0.00 0.00 0.00
10/18/19 2:26:20 AM 247 0.0 8.0 51 83 73.3 59.7 29.860 20.21 0.0 0 0.00 0.00 0.00 0.00
10/18/19 2:27:25 AM 247 0.0 8.0 51 83 73.3 59.7 29.859 20.21 0.0 0 0.00 0.00 0.00 0.00
10/18/19 2:28:19 AM 247 0.0 8.0 51 83 73.3 59.7 29.859 20.21 0.0 0 0.00 0.00 0.00 0.00
10/18/19 2:29:33 AM 247 0.0 8.0 51 83 73.3 59.7 29.859 20.21 0.0 0 0.00 0.00 0.00 0.00
10/18/19 2:30:24 AM 247 1.0 8.0 51 83 73.3 59.7 29.859 20.21 0.0 0 0.00 0.00 0.00 0.00
10/18/19 2:31:35 AM 247 2.0 8.0 51 83 73.3 59.6 29.862 20.21 0.0 0 0.00 0.00 0.00 0.00
10/18/19 2:32:28 AM 247 0.0 8.0 51 83 73.3 59.6 29.864 20.21 0.0 0 0.00 0.00 0.00 0.00
10/18/19 2:33:16 AM 247 0.0 8.0 51 83 73.3 59.6 29.864 20.21 0.0 0 0.00 0.00 0.00 0.00
10/18/19 2:34:27 AM 247 0.0 8.0 51 83 73.3 59.5 29.864 20.21 0.0 0 0.00 0.00 0.00 0.00
10/18/19 2:35:20 AM 247 0.0 8.0 51 83 73.3 59.5 29.864 20.21 0.0 0 0.00 0.00 0.00 0.00
10/18/19 2:36:35 AM 247 0.0 8.0 51 83 73.3 59.5 29.862 20.21 0.0 0 0.00 0.00 0.00 0.00
10/18/19 2:37:25 AM 247 0.0 8.0 51 83 73.3 59.5 29.865 20.21 0.0 0 0.00 0.00 0.00 0.00
10/18/19 2:38:34 AM 247 2.0 8.0 51 83 73.3 59.4 29.863 20.21 0.0 0 0.00 0.00 0.00 0.00
10/18/19 2:39:27 AM 247 2.0 8.0 51 83 73.3 59.4 29.864 20.21 0.0 0 0.00 0.00 0.00 0.00
10/18/19 2:40:21 AM 247 1.0 8.0 51 83 73.3 59.3 29.864 20.21 0.0 0 0.00 0.00 0.00 0.00
10/18/19 2:41:32 AM 247 1.0 8.0 51 83 73.3 59.3 29.862 20.21 0.0 0 0.00 0.00 0.00 0.00
10/18/19 2:42:25 AM 247 0.0 8.0 51 83 73.3 59.3 29.862 20.21 0.0 0 0.00 0.00 0.00 0.00
10/18/19 2:43:16 AM 247 0.0 8.0 51 83 73.3 59.3 29.862 20.21 0.0 0 0.00 0.00 0.00 0.00
10/18/19 2:44:24 AM 247 0.0 8.0 51 83 73.3 59.2 29.863 20.21 0.0 0 0.00 0.00 0.00 0.00
10/18/19 2:45:17 AM 247 0.0 8.0 51 83 73.3 59.2 29.863 20.21 0.0 0 0.00 0.00 0.00 0.00
10/18/19 2:46:29 AM 247 0.0 8.0 51 83 73.3 59.2 29.862 20.21 0.0 0 0.00 0.00 0.00 0.00
10/18/19 2:47:19 AM 247 0.0 8.0 51 83 73.3 59.2 29.862 20.21 0.0 0 0.00 0.00 0.00 0.00
10/18/19 2:48:31 AM 247 0.0 8.0 51 83 73.2 59.2 29.862 20.21 0.0 0 0.00 0.00 0.00 0.00
10/18/19 2:49:21 AM 247 0.0 8.0 51 84 73.2 59.2 29.862 20.21 0.0 0 0.00 0.00 0.00 0.00
10/18/19 2:50:33 AM 247 0.0 8.0 51 84 73.3 59.1 29.863 20.21 0.0 0 0.00 0.00 0.00 0.00
10/18/19 2:51:26 AM 247 0.0 8.0 51 84 73.3 59.1 29.864 20.21 0.0 0 0.00 0.00 0.00 0.00
10/18/19 2:52:16 AM 247 0.0 8.0 51 84 73.3 59.1 29.864 20.21 0.0 0 0.00 0.00 0.00 0.00
10/18/19 2:53:28 AM 247 0.0 8.0 51 84 73.3 59.1 29.864 20.21 0.0 0 0.00 0.00 0.00 0.00
10/18/19 2:54:15 AM 247 0.0 8.0 51 84 73.3 59.0 29.864 20.21 0.0 0 0.00 0.00 0.00 0.00
10/18/19 2:55:33 AM 247 0.0 8.0 51 84 73.3 59.0 29.862 20.21 0.0 0 0.00 0.00 0.00 0.00
10/18/19 2:56:23 AM 247 0.0 8.0 51 84 73.3 59.0 29.862 20.21 0.0 0 0.00 0.00 0.00 0.00
10/18/19 2:57:33 AM 247 0.0 8.0 51 84 73.2 59.0 29.862 20.21 0.0 0 0.00 0.00 0.00 0.00
10/18/19 2:58:27 AM 247 0.0 8.0 51 83 73.3 58.9 29.861 20.21 0.0 0 0.00 0.00 0.00 0.00
10/18/19 2:59:17 AM 247 0.0 8.0 51 83 73.3 58.9 29.861 20.21 0.0 0 0.00 0.00 0.00 0.00
10/18/19 3:00:26 AM 247 0.0 8.0 51 83 73.2 58.7 29.859 20.21 0.0 0 0.00 0.00 0.00 0.00
10/18/19 3:01:19 AM 247 0.0 8.0 51 83 73.2 58.6 29.859 20.21 0.0 0 0.00 0.00 0.00 0.00
10/18/19 3:02:31 AM 247 0.0 8.0 51 83 73.2 58.5 29.861 20.21 0.0 0 0.00 0.00 0.00 0.00
10/18/19 3:03:24 AM 247 0.0 8.0 51 83 73.2 58.5 29.861 20.21 0.0 0 0.00 0.00 0.00 0.00
10/18/19 3:04:15 AM 247 0.0 8.0 51 83 73.3 58.4 29.863 20.21 0.0 0 0.00 0.00 0.00 0.00
10/18/19 3:05:27 AM 247 0.0 8.0 51 83 73.3 58.4 29.861 20.21 0.0 0 0.00 0.00 0.00 0.00
10/18/19 3:06:17 AM 247 0.0 8.0 51 84 73.3 58.3 29.861 20.21 0.0 0 0.00 0.00 0.00 0.00
10/18/19 3:07:29 AM 247 0.0 8.0 51 84 73.2 58.3 29.860 20.21 0.0 0 0.00 0.00 0.00 0.00
10/18/19 3:08:22 AM 247 0.0 8.0 51 84 73.2 58.2 29.860 20.21 0.0 0 0.00 0.00 0.00 0.00
10/18/19 3:09:34 AM 247 0.0 8.0 51 84 73.2 58.2 29.859 20.21 0.0 0 0.00 0.00 0.00 0.00
10/18/19 3:10:21 AM 247 0.0 8.0 51 84 73.2 58.2 29.859 20.21 0.0 0 0.00 0.00 0.00 0.00
10/18/19 3:11:33 AM 247 0.0 8.0 51 84 73.2 58.2 29.859 20.21 0.0 0 0.00 0.00 0.00 0.00
10/18/19 3:12:26 AM 247 0.0 8.0 51 84 73.2 58.2 29.860 20.21 0.0 0 0.00 0.00 0.00 0.00
10/18/19 3:13:20 AM 247 0.0 8.0 51 84 73.2 58.2 29.860 20.21 0.0 0 0.00 0.00 0.00 0.00
10/18/19 3:14:31 AM 247 0.0 8.0 51 84 73.1 58.1 29.859 20.21 0.0 0 0.00 0.00 0.00 0.00
10/18/19 3:15:25 AM 247 0.0 8.0 51 84 73.1 58.1 29.859 20.21 0.0 0 0.00 0.00 0.00 0.00
10/18/19 3:16:30 AM 247 0.0 8.0 51 84 73.1 58.0 29.857 20.21 0.0 0 0.00 0.00 0.00 0.00
10/18/19 3:17:23 AM 247 0.0 8.0 51 84 73.1 58.0 29.857 20.21 0.0 0 0.00 0.00 0.00 0.00
10/18/19 3:18:35 AM 247 0.0 8.0 51 84 73.1 58.0 29.859 20.21 0.0 0 0.00 0.00 0.00 0.00
10/18/19 3:19:28 AM 247 0.0 8.0 51 84 73.1 57.9 29.861 20.21 0.0 0 0.00 0.00 0.00 0.00
10/18/19 3:20:22 AM 247 0.0 8.0 51 84 73.1 57.9 29.861 20.21 0.0 0 0.00 0.00 0.00 0.00
10/18/19 3:21:30 AM 247 0.0 8.0 51 84 73.1 57.8 29.863 20.21 0.0 0 0.00 0.00 0.00 0.00
10/18/19 3:22:20 AM 247 0.0 8.0 51 84 73.1 57.7 29.863 20.21 0.0 0 0.00 0.00 0.00 0.00
10/18/19 3:23:32 AM 247 0.0 8.0 51 84 73.0 57.6 29.864 20.21 0.0 0 0.00 0.00 0.00 0.00
10/18/19 3:24:25 AM 247 4.0 8.0 51 84 73.1 57.4 29.866 20.21 0.0 0 0.00 0.00 0.00 0.00
10/18/19 3:25:19 AM 247 3.0 8.0 51 84 73.1 57.4 29.866 20.21 0.0 0 0.00 0.00 0.00 0.00
10/18/19 3:26:24 AM 247 3.0 8.0 51 84 73.1 57.3 29.865 20.21 0.0 0 0.00 0.00 0.00 0.00
10/18/19 3:27:18 AM 247 2.0 8.0 51 85 73.1 57.3 29.865 20.21 0.0 0 0.00 0.00 0.00 0.00
10/18/19 3:28:29 AM 247 1.0 8.0 51 85 73.0 57.3 29.868 20.21 0.0 0 0.00 0.00 0.00 0.00
10/18/19 3:29:23 AM 247 1.0 8.0 51 85 73.0 57.3 29.868 20.21 0.0 0 0.00 0.00 0.00 0.00
10/18/19 3:30:34 AM 247 0.0 8.0 51 85 73.0 57.3 29.865 20.21 0.0 0 0.00 0.00 0.00 0.00
10/18/19 3:31:28 AM 247 0.0 8.0 51 85 73.0 57.3 29.867 20.21 0.0 0 0.00 0.00 0.00 0.00
10/18/19 3:32:15 AM 247 1.0 8.0 51 85 73.0 57.3 29.867 20.21 0.0 0 0.00 0.00 0.00 0.00
10/18/19 3:33:30 AM 247 0.0 8.0 51 85 73.0 57.3 29.866 20.21 0.0 0 0.00 0.00 0.00 0.00
10/18/19 3:34:20 AM 247 0.0 8.0 51 85 73.0 57.2 29.866 20.21 0.0 0 0.00 0.00 0.00 0.00
10/18/19 3:35:34 AM 247 0.0 8.0 51 85 73.0 57.2 29.869 20.21 0.0 0 0.00 0.00 0.00 0.00
10/18/19 3:36:22 AM 247 0.0 8.0 51 85 73.0 57.2 29.869 20.21 0.0 0 0.00 0.00 0.00 0.00
10/18/19 3:37:30 AM 247 0.0 8.0 51 85 72.9 57.2 29.869 20.21 0.0 0 0.00 0.00 0.00 0.00
10/18/19 3:38:24 AM 247 0.0 8.0 51 85 72.9 57.1 29.869 20.21 0.0 0 0.00 0.00 0.00 0.00
10/18/19 3:39:35 AM 247 0.0 8.0 51 85 72.9 57.1 29.872 20.21 0.0 0 0.00 0.00 0.00 0.00
10/18/19 3:40:25 AM 247 0.0 8.0 51 85 72.9 57.1 29.871 20.21 0.0 0 0.00 0.00 0.00 0.00
10/18/19 3:41:19 AM 247 0.0 8.0 51 85 72.9 57.0 29.871 20.21 0.0 0 0.00 0.00 0.00 0.00
10/18/19 3:42:27 AM 247 0.0 8.0 51 85 72.9 57.0 29.874 20.21 0.0 0 0.00 0.00 0.00 0.00
10/18/19 3:43:21 AM 247 0.0 8.0 51 85 72.9 57.0 29.874 20.21 0.0 0 0.00 0.00 0.00 0.00
10/18/19 3:44:32 AM 247 0.0 8.0 51 86 72.9 57.0 29.873 20.21 0.0 0 0.00 0.00 0.00 0.00
10/18/19 3:45:26 AM 247 0.0 8.0 51 86 72.9 57.0 29.873 20.21 0.0 0 0.00 0.00 0.00 0.00
10/18/19 3:46:16 AM 248 1.0 8.0 51 86 72.9 57.0 29.874 20.21 0.0 0 0.00 0.00 0.00 0.00
10/18/19 3:47:31 AM 248 2.0 8.0 51 86 72.8 57.1 29.879 20.21 0.0 0 0.00 0.00 0.00 0.00
10/18/19 3:48:18 AM 248 3.0 8.0 51 86 72.8 57.1 29.879 20.21 0.0 0 0.00 0.00 0.00 0.00
10/18/19 3:49:30 AM 248 2.0 8.0 51 87 72.8 57.2 29.876 20.21 0.0 0 0.00 0.00 0.00 0.00
10/18/19 3:50:20 AM 248 1.0 8.0 51 87 72.8 57.3 29.876 20.21 0.0 0 0.00 0.00 0.00 0.00
10/18/19 3:51:35 AM 248 1.0 8.0 51 87 72.8 57.3 29.878 20.21 0.0 0 0.00 0.00 0.00 0.00
10/18/19 3:52:25 AM 248 1.0 8.0 51 87 72.8 57.4 29.874 20.21 0.0 0 0.00 0.00 0.00 0.00
10/18/19 3:53:34 AM 248 0.0 8.0 51 87 72.8 57.4 29.874 20.21 0.0 0 0.00 0.00 0.00 0.00
10/18/19 3:54:27 AM 248 1.0 8.0 51 87 72.8 57.5 29.877 20.21 0.0 0 0.00 0.00 0.00 0.00
10/18/19 3:55:18 AM 248 0.0 8.0 51 87 72.8 57.5 29.877 20.21 0.0 0 0.00 0.00 0.00 0.00
10/18/19 3:56:29 AM 248 0.0 8.0 51 87 72.8 57.6 29.875 20.21 0.0 0 0.00 0.00 0.00 0.00
10/18/19 3:57:23 AM 248 0.0 8.0 51 87 72.8 57.6 29.875 20.21 0.0 0 0.00 0.00 0.00 0.00
10/18/19 3:58:31 AM 248 0.0 8.0 51 87 72.8 57.6 29.879 20.21 0.0 0 0.00 0.00 0.00 0.00
10/18/19 3:59:21 AM 248 0.0 8.0 51 87 72.8 57.7 29.879 20.21 0.0 0 0.00 0.00 0.00 0.00
10/18/19 4:00:15 AM 248 0.0 8.0 51 87 72.8 57.7 29.877 20.21 0.0 0 0.00 0.00 0.00 0.00
10/18/19 4:01:27 AM 248 0.0 8.0 51 87 72.8 57.7 29.877 20.21 0.0 0 0.00 0.00 0.00 0.00
10/18/19 4:02:20 AM 248 0.0 8.0 51 87 72.8 57.7 29.877 20.21 0.0 0 0.00 0.00 0.00 0.00
10/18/19 4:03:32 AM 248 0.0 8.0 51 87 72.8 57.7 29.877 20.21 0.0 0 0.00 0.00 0.00 0.00
10/18/19 4:04:19 AM 248 0.0 8.0 51 87 72.8 57.7 29.877 20.21 0.0 0 0.00 0.00 0.00 0.00
10/18/19 4:05:34 AM 248 0.0 8.0 51 87 72.8 57.7 29.874 20.21 0.0 0 0.00 0.00 0.00 0.00
10/18/19 4:06:27 AM 248 0.0 8.0 51 87 72.8 57.8 29.872 20.21 0.0 0 0.00 0.00 0.00 0.00
10/18/19 4:07:20 AM 248 0.0 8.0 51 87 72.8 57.7 29.872 20.21 0.0 0 0.00 0.00 0.00 0.00
10/18/19 4:08:32 AM 248 0.0 8.0 51 87 72.8 57.8 29.874 20.21 0.0 0 0.00 0.00 0.00 0.00
10/18/19 4:09:19 AM 248 0.0 8.0 51 87 72.8 57.8 29.874 20.21 0.0 0 0.00 0.00 0.00 0.00
10/18/19 4:10:31 AM 248 0.0 8.0 51 87 72.8 57.8 29.876 20.21 0.0 0 0.00 0.00 0.00 0.00
10/18/19 4:11:25 AM 248 0.0 8.0 51 87 72.8 57.8 29.876 20.21 0.0 0 0.00 0.00 0.00 0.00
10/18/19 4:12:15 AM 248 0.0 8.0 51 87 72.8 57.8 29.875 20.21 0.0 0 0.00 0.00 0.00 0.00
10/18/19 4:13:27 AM 248 0.0 8.0 51 87 72.8 57.8 29.879 20.21 0.0 0 0.00 0.00 0.00 0.00
10/18/19 4:14:20 AM 248 0.0 8.0 51 87 72.8 57.8 29.879 20.21 0.0 0 0.00 0.00 0.00 0.00
10/18/19 4:15:26 AM 248 0.0 8.0 51 87 72.8 57.9 29.881 20.21 0.0 0 0.00 0.00 0.00 0.00
10/18/19 4:16:19 AM 248 0.0 8.0 51 87 72.8 57.9 29.881 20.21 0.0 0 0.00 0.00 0.00 0.00
10/18/19 4:17:31 AM 248 0.0 8.0 51 87 72.8 57.9 29.880 20.21 0.0 0 0.00 0.00 0.00 0.00
10/18/19 4:18:24 AM 248 0.0 8.0 51 87 72.8 58.0 29.880 20.21 0.0 0 0.00 0.00 0.00 0.00
10/18/19 4:19:36 AM 248 0.0 8.0 51 87 72.8 58.0 29.880 20.21 0.0 0 0.00 0.00 0.00 0.00
10/18/19 4:20:24 AM 248 0.0 8.0 51 87 72.8 57.9 29.880 20.21 0.0 0 0.00 0.00 0.00 0.00
10/18/19 4:21:35 AM 248 0.0 8.0 51 87 72.8 58.0 29.880 20.21 0.0 0 0.00 0.00 0.00 0.00
10/18/19 4:22:29 AM 248 0.0 8.0 51 87 72.8 58.0 29.880 20.21 0.0 0 0.00 0.00 0.00 0.00
10/18/19 4:23:22 AM 248 0.0 8.0 51 87 72.8 58.0 29.880 20.21 0.0 0 0.00 0.00 0.00 0.00
10/18/19 4:24:34 AM 248 0.0 8.0 51 87 72.8 58.0 29.875 20.21 0.0 0 0.00 0.00 0.00 0.00
10/18/19 4:25:24 AM 248 0.0 8.0 51 87 72.8 58.0 29.875 20.21 0.0 0 0.00 0.00 0.00 0.00
10/18/19 4:26:36 AM 248 0.0 8.0 51 87 72.8 57.9 29.875 20.21 0.0 0 0.00 0.00 0.00 0.00
10/18/19 4:27:24 AM 248 0.0 8.0 51 87 72.9 57.9 29.878 20.21 0.0 0 0.00 0.00 0.00 0.00
10/18/19 4:28:17 AM 248 0.0 8.0 51 87 72.9 57.9 29.878 20.21 0.0 0 0.00 0.00 0.00 0.00
10/18/19 4:29:29 AM 248 0.0 8.0 51 87 72.9 57.9 29.877 20.21 0.0 0 0.00 0.00 0.00 0.00
10/18/19 4:30:22 AM 248 0.0 8.0 51 87 72.9 57.9 29.877 20.21 0.0 0 0.00 0.00 0.00 0.00
10/18/19 4:31:28 AM 248 0.0 8.0 51 87 72.9 57.9 29.877 20.21 0.0 0 0.00 0.00 0.00 0.00
10/18/19 4:32:21 AM 248 0.0 8.0 51 87 72.9 57.9 29.877 20.21 0.0 0 0.00 0.00 0.00 0.00
10/18/19 4:33:33 AM 248 0.0 8.0 51 87 72.9 57.8 29.875 20.21 0.0 0 0.00 0.00 0.00 0.00
10/18/19 4:34:26 AM 248 0.0 8.0 51 87 72.8 57.8 29.875 20.21 0.0 0 0.00 0.00 0.00 0.00
10/18/19 4:35:20 AM 248 0.0 8.0 51 87 72.8 57.8 29.875 20.21 0.0 0 0.00 0.00 0.00 0.00
10/18/19 4:36:25 AM 248 0.0 8.0 51 87 72.8 57.8 29.873 20.21 0.0 0 0.00 0.00 0.00 0.00
10/18/19 4:37:19 AM 248 0.0 8.0 51 86 72.8 57.8 29.873 20.21 0.0 0 0.00 0.00 0.00 0.00
10/18/19 4:38:31 AM 248 0.0 8.0 51 87 72.8 57.7 29.870 20.21 0.0 0 0.00 0.00 0.00 0.00
10/18/19 4:39:21 AM 248 0.0 8.0 51 86 72.8 57.7 29.870 20.21 0.0 0 0.00 0.00 0.00 0.00
10/18/19 4:40:33 AM 248 0.0 8.0 51 86 72.9 57.6 29.870 20.21 0.0 0 0.00 0.00 0.00 0.00
10/18/19 4:41:23 AM 248 0.0 8.0 51 86 72.9 57.6 29.870 20.21 0.0 0 0.00 0.00 0.00 0.00
10/18/19 4:42:35 AM 248 0.0 8.0 51 86 72.8 57.5 29.869 20.21 0.0 0 0.00 0.00 0.00 0.00
10/18/19 4:43:26 AM 248 0.0 8.0 51 86 72.8 57.5 29.869 20.21 0.0 0 0.00 0.00 0.00 0.00
10/18/19 4:44:19 AM 248 0.0 8.0 51 86 72.8 57.5 29.869 20.21 0.0 0 0.00 0.00 0.00 0.00
10/18/19 4:45:31 AM 248 0.0 8.0 51 86 72.8 57.4 29.869 20.21 0.0 0 0.00 0.00 0.00 0.00
10/18/19 4:46:25 AM 248 0.0 8.0 51 86 72.8 57.4 29.866 20.21 0.0 0 0.00 0.00 0.00 0.00
10/18/19 4:47:33 AM 248 0.0 8.0 51 86 72.8 57.3 29.866 20.21 0.0 0 0.00 0.00 0.00 0.00
10/18/19 4:48:27 AM 248 0.0 8.0 51 86 72.8 57.3 29.866 20.21 0.0 0 0.00 0.00 0.00 0.00
10/18/19 4:49:17 AM 248 0.0 8.0 51 86 72.8 57.3 29.866 20.21 0.0 0 0.00 0.00 0.00 0.00
10/18/19 4:50:29 AM 248 0.0 8.0 51 86 72.8 57.2 29.870 20.21 0.0 0 0.00 0.00 0.00 0.00
10/18/19 4:51:23 AM 248 0.0 8.0 51 86 72.8 57.1 29.870 20.21 0.0 0 0.00 0.00 0.00 0.00
10/18/19 4:52:31 AM 248 0.0 8.0 51 86 72.8 57.0 29.865 20.21 0.0 0 0.00 0.00 0.00 0.00
10/18/19 4:53:25 AM 248 0.0 8.0 51 86 72.8 56.9 29.865 20.21 0.0 0 0.00 0.00 0.00 0.00
10/18/19 4:54:36 AM 248 0.0 8.0 51 86 72.8 56.8 29.867 20.21 0.0 0 0.00 0.00 0.00 0.00
10/18/19 4:55:30 AM 248 0.0 8.0 51 86 72.7 56.8 29.868 20.21 0.0 0 0.00 0.00 0.00 0.00
10/18/19 4:56:20 AM 248 0.0 8.0 51 86 72.7 56.7 29.868 20.21 0.0 0 0.00 0.00 0.00 0.00
10/18/19 4:57:29 AM 248 0.0 8.0 51 86 72.8 56.7 29.870 20.21 0.0 0 0.00 0.00 0.00 0.00
10/18/19 4:58:23 AM 248 0.0 8.0 51 86 72.8 56.7 29.870 20.21 0.0 0 0.00 0.00 0.00 0.00
10/18/19 4:59:34 AM 248 2.0 8.0 51 86 72.7 56.6 29.866 20.21 0.0 0 0.00 0.00 0.00 0.00
10/18/19 5:00:28 AM 248 1.0 8.0 51 86 72.7 56.6 29.867 20.21 0.0 0 0.00 0.00 0.00 0.00
10/18/19 5:01:18 AM 248 0.0 8.0 51 86 72.7 56.6 29.867 20.21 0.0 0 0.00 0.00 0.00 0.00
10/18/19 5:02:30 AM 248 0.0 8.0 51 86 72.7 56.6 29.866 20.21 0.0 0 0.00 0.00 0.00 0.00
10/18/19 5:03:18 AM 248 0.0 8.0 51 86 72.7 56.6 29.866 20.21 0.0 0 0.00 0.00 0.00 0.00
10/18/19 5:04:29 AM 248 0.0 8.0 51 86 72.7 56.6 29.867 20.21 0.0 0 0.00 0.00 0.00 0.00
10/18/19 5:05:26 AM 248 0.0 8.0 51 86 72.7 56.5 29.867 20.21 0.0 0 0.00 0.00 0.00 0.00
10/18/19 5:06:35 AM 248 0.0 8.0 51 86 72.6 56.4 29.870 20.21 0.0 0 0.00 0.00 0.00 0.00
10/18/19 5:07:28 AM 248 0.0 8.0 51 86 72.7 56.3 29.872 20.21 0.0 0 0.00 0.00 0.00 0.00
10/18/19 5:08:16 AM 248 0.0 8.0 51 86 72.7 56.3 29.872 20.21 0.0 0 0.00 0.00 0.00 0.00
10/18/19 5:09:27 AM 248 0.0 8.0 51 86 72.7 56.2 29.869 20.21 0.0 0 0.00 0.00 0.00 0.00
10/18/19 5:10:21 AM 248 0.0 8.0 51 86 72.7 56.2 29.869 20.21 0.0 0 0.00 0.00 0.00 0.00
10/18/19 5:11:33 AM 248 0.0 8.0 51 86 72.6 56.1 29.867 20.21 0.0 0 0.00 0.00 0.00 0.00
10/18/19 5:12:26 AM 248 0.0 8.0 51 86 72.6 56.1 29.870 20.21 0.0 0 0.00 0.00 0.00 0.00
10/18/19 5:13:17 AM 248 0.0 8.0 51 86 72.6 56.0 29.870 20.21 0.0 0 0.00 0.00 0.00 0.00
10/18/19 5:14:25 AM 248 0.0 8.0 51 86 72.6 55.9 29.868 20.21 0.0 0 0.00 0.00 0.00 0.00
10/18/19 5:15:19 AM 248 3.0 8.0 51 86 72.6 55.8 29.868 20.21 0.0 0 0.00 0.00 0.00 0.00
10/18/19 5:16:31 AM 248 2.0 8.0 51 86 72.5 55.8 29.869 20.21 0.0 0 0.00 0.00 0.00 0.00
10/18/19 5:17:21 AM 248 1.0 8.0 51 86 72.5 55.7 29.869 20.21 0.0 0 0.00 0.00 0.00 0.00
10/18/19 5:18:36 AM 248 1.0 8.0 51 87 72.5 55.8 29.868 20.21 0.0 0 0.00 0.00 0.00 0.00
10/18/19 5:19:24 AM 248 1.0 8.0 51 87 72.5 55.8 29.868 20.21 0.0 0 0.00 0.00 0.00 0.00
10/18/19 5:20:17 AM 248 1.0 8.0 51 87 72.5 55.8 29.868 20.21 0.0 0 0.00 0.00 0.00 0.00
10/18/19 5:21:29 AM 248 1.0 8.0 51 87 72.4 55.8 29.869 20.21 0.0 0 0.00 0.00 0.00 0.00
10/18/19 5:22:20 AM 248 1.0 8.0 51 87 72.4 55.8 29.869 20.21 0.0 0 0.00 0.00 0.00 0.00
10/18/19 5:23:32 AM 248 0.0 8.0 51 87 72.4 55.7 29.867 20.21 0.0 0 0.00 0.00 0.00 0.00
10/18/19 5:24:19 AM 248 3.0 8.0 51 87 72.4 55.7 29.867 20.21 0.0 0 0.00 0.00 0.00 0.00
10/18/19 5:25:34 AM 248 3.0 8.0 51 87 72.4 55.7 29.873 20.21 0.0 0 0.00 0.00 0.00 0.00
10/18/19 5:26:25 AM 248 2.0 8.0 51 87 72.4 55.6 29.868 20.21 0.0 0 0.00 0.00 0.00 0.00
10/18/19 5:27:19 AM 248 2.0 8.0 51 87 72.4 55.6 29.868 20.21 0.0 0 0.00 0.00 0.00 0.00
10/18/19 5:28:31 AM 248 0.0 8.0 51 87 72.4 55.5 29.866 20.21 0.0 0 0.00 0.00 0.00 0.00
10/18/19 5:29:22 AM 248 0.0 8.0 51 87 72.4 55.5 29.866 20.21 0.0 0 0.00 0.00 0.00 0.00
10/18/19 5:30:30 AM 248 3.0 8.0 51 87 72.3 55.5 29.867 20.21 0.0 0 0.00 0.00 0.00 0.00
10/18/19 5:31:21 AM 248 2.0 8.0 51 87 72.3 55.5 29.867 20.21 0.0 0 0.00 0.00 0.00 0.00
10/18/19 5:32:33 AM 248 3.0 8.0 51 87 72.2 55.4 29.872 20.21 0.0 0 0.00 0.00 0.00 0.00
10/18/19 5:33:23 AM 248 2.0 8.0 51 87 72.2 55.4 29.870 20.21 0.0 0 0.00 0.00 0.00 0.00
10/18/19 5:34:17 AM 248 2.0 8.0 51 87 72.2 55.4 29.870 20.21 0.0 0 0.00 0.00 0.00 0.00
10/18/19 5:35:26 AM 248 1.0 8.0 51 87 72.2 55.3 29.871 20.21 0.0 0 0.00 0.00 0.00 0.00
10/18/19 5:36:19 AM 248 2.0 8.0 51 87 72.2 55.3 29.871 20.21 0.0 0 0.00 0.00 0.00 0.00
10/18/19 5:37:31 AM 248 0.0 8.0 51 87 72.2 55.3 29.867 20.21 0.0 0 0.00 0.00 0.00 0.00
10/18/19 5:38:24 AM 248 2.0 8.0 51 87 72.2 55.2 29.867 20.21 0.0 0 0.00 0.00 0.00 0.00
10/18/19 5:39:36 AM 248 2.0 8.0 51 88 72.3 55.2 29.868 20.21 0.0 0 0.00 0.00 0.00 0.00
10/18/19 5:40:24 AM 248 2.0 8.0 51 88 72.2 55.2 29.866 20.21 0.0 0 0.00 0.00 0.00 0.00
10/18/19 5:41:18 AM 248 5.0 8.0 51 88 72.2 55.2 29.866 20.21 0.0 0 0.00 0.00 0.00 0.00
10/18/19 5:42:29 AM 247 2.0 8.0 51 88 72.2 55.2 29.867 20.21 0.0 0 0.00 0.00 0.00 0.00
10/18/19 5:43:20 AM 247 4.0 8.0 51 88 72.2 55.1 29.867 20.21 0.0 0 0.00 0.00 0.00 0.00
10/18/19 5:44:35 AM 243 4.0 8.0 51 88 72.2 55.2 29.870 20.21 0.0 0 0.00 0.00 0.00 0.00
10/18/19 5:45:25 AM 243 2.0 8.0 51 88 72.2 55.2 29.868 20.21 0.0 0 0.00 0.00 0.00 0.00
10/18/19 5:46:31 AM 243 1.0 8.0 51 89 72.2 55.3 29.870 20.21 0.0 0 0.00 0.00 0.00 0.00
10/18/19 5:47:24 AM 243 1.0 8.0 51 89 72.2 55.3 29.870 20.21 0.0 0 0.00 0.00 0.00 0.00
10/18/19 5:48:15 AM 243 6.0 8.0 51 89 72.3 55.3 29.873 20.21 0.0 0 0.00 0.00 0.00 0.00
10/18/19 5:49:30 AM 243 2.0 8.0 51 89 72.4 55.4 29.874 20.21 0.0 0 0.00 0.00 0.00 0.00
10/18/19 5:50:21 AM 243 0.0 8.0 51 89 72.4 55.4 29.874 20.21 0.0 0 0.00 0.00 0.00 0.00
10/18/19 5:51:29 AM 243 3.0 8.0 51 89 72.4 55.4 29.873 20.21 0.0 0 0.00 0.00 0.00 0.00
10/18/19 5:52:23 AM 242 3.0 8.0 51 89 72.4 55.4 29.873 20.21 0.0 0 0.00 0.00 0.00 0.00
10/18/19 5:53:35 AM 242 4.0 8.0 51 89 72.4 55.4 29.877 20.21 0.0 0 0.00 0.00 0.00 0.00
10/18/19 5:54:25 AM 242 3.0 8.0 51 88 72.5 55.4 29.878 20.21 0.0 0 0.00 0.00 0.00 0.00
10/18/19 5:55:19 AM 242 2.0 8.0 51 88 72.5 55.4 29.878 20.21 0.0 0 0.00 0.00 0.00 0.00
10/18/19 5:56:28 AM 242 4.0 8.0 51 88 72.5 55.4 29.871 20.21 0.0 0 0.00 0.00 0.00 0.00
10/18/19 5:57:19 AM 232 5.0 8.0 51 88 72.5 55.3 29.871 20.21 0.0 0 0.00 0.00 0.00 0.00
10/18/19 5:58:31 AM 208 3.0 9.0 51 88 72.4 55.4 29.873 20.21 0.0 0 0.00 0.00 0.00 0.00
10/18/19 5:59:25 AM 172 7.0 9.0 51 88 72.5 55.4 29.873 20.21 0.0 0 0.00 0.00 0.00 0.00
10/18/19 6:00:15 AM 71 9.0 12.0 51 88 72.5 55.4 29.874 20.21 0.0 0 0.00 0.00 0.00 0.00
10/18/19 6:01:30 AM 70 4.0 12.0 51 86 72.5 55.4 29.873 20.21 0.0 0 0.00 0.00 0.00 0.00
10/18/19 6:02:18 AM 70 3.0 12.0 51 85 72.5 55.4 29.873 20.21 0.0 0 0.00 0.00 0.00 0.00
10/18/19 6:03:30 AM 70 5.0 12.0 51 85 72.5 55.5 29.879 20.21 0.0 0 0.00 0.00 0.00 0.00
10/18/19 6:04:24 AM 70 3.0 12.0 51 85 72.5 55.7 29.879 20.21 0.0 0 0.00 0.00 0.00 0.00
10/18/19 6:05:39 AM 72 4.0 12.0 51 84 72.5 55.8 29.883 20.21 0.0 0 0.00 0.00 0.00 0.00
10/18/19 6:06:29 AM 72 3.0 12.0 51 83 72.5 55.9 29.883 20.21 0.0 0 0.00 0.00 0.00 0.00
10/18/19 6:07:17 AM 198 6.0 12.0 51 81 72.5 55.9 29.883 20.21 0.0 0 0.00 0.00 0.00 0.00
10/18/19 6:08:32 AM 198 3.0 12.0 51 77 72.5 56.1 29.881 20.21 0.0 0 0.00 0.00 0.00 0.00
10/18/19 6:09:22 AM 198 4.0 12.0 51 73 72.5 56.4 29.881 20.21 0.0 0 0.00 0.00 0.00 0.00
10/18/19 6:10:37 AM 198 2.0 12.0 51 66 72.5 56.7 29.883 20.21 0.0 0 0.00 0.00 0.00 0.00
10/18/19 6:11:28 AM 198 4.0 12.0 51 66 72.5 56.8 29.881 20.21 0.0 0 0.00 0.00 0.00 0.00
10/18/19 6:12:22 AM 188 5.0 12.0 51 65 72.5 57.0 29.881 20.21 0.0 0 0.00 0.00 0.00 0.00
10/18/19 6:13:27 AM 179 6.0 12.0 51 63 72.4 57.2 29.880 20.21 0.0 0 0.00 0.00 0.00 0.00
10/18/19 6:14:21 AM 180 9.0 12.0 51 61 72.4 57.5 29.880 20.21 0.0 0 0.00 0.00 0.00 0.00
10/18/19 6:15:33 AM 180 11.0 12.0 51 60 72.5 57.8 29.877 20.21 0.0 0 0.00 0.00 0.00 0.00
10/18/19 6:16:23 AM 142 9.0 12.0 51 57 72.5 58.0 29.877 20.21 0.0 0 0.00 0.00 0.00 0.00
10/18/19 6:17:17 AM 137 9.0 12.0 51 54 72.4 58.4 29.878 20.21 0.0 0 0.00 0.00 0.00 0.00
10/18/19 6:18:26 AM 115 3.0 12.0 51 52 72.3 58.9 29.886 20.21 0.0 0 0.00 0.00 0.00 0.00
10/18/19 6:19:20 AM 110 10.0 12.0 51 50 72.3 59.3 29.886 20.21 0.0 0 0.00 0.00 0.00 0.00
10/18/19 6:20:31 AM 102 8.0 12.0 51 50 72.4 59.6 29.878 20.21 0.0 0 0.00 0.00 0.00 0.00
10/18/19 6:21:22 AM 90 7.0 13.0 51 55 72.4 60.0 29.878 20.21 0.0 0 0.00 0.00 0.00 0.00
10/18/19 6:22:37 AM 25 5.0 13.0 51 46 72.4 60.3 29.881 20.21 0.0 0 0.00 0.00 0.00 0.00
10/18/19 6:23:24 AM 258 7.0 13.0 51 49 72.4 60.5 29.881 20.21 0.0 0 0.00 0.00 0.00 0.00
10/18/19 6:24:37 AM 255 5.0 13.0 51 48 72.4 60.6 29.878 20.21 0.0 0 0.00 0.00 0.00 0.00
10/18/19 6:25:31 AM 263 6.0 13.0 51 48 72.3 60.7 29.873 20.21 0.0 0 0.00 0.00 0.00 0.00
10/18/19 6:26:21 AM 262 4.0 13.0 51 52 72.3 60.7 29.873 20.21 0.0 0 0.00 0.00 0.00 0.00
10/18/19 6:27:33 AM 245 4.0 13.0 51 50 72.4 60.7 29.876 20.21 0.0 0 0.00 0.00 0.00 0.00
10/18/19 6:28:24 AM 14 23.0 35.0 51 50 72.4 60.7 29.876 20.21 0.0 0 0.00 0.00 0.00 0.00
10/18/19 6:29:33 AM 325 5.0 35.0 51 39 72.4 61.1 29.880 20.21 0.0 0 0.00 0.00 0.00 0.00
10/18/19 6:30:23 AM 324 9.0 35.0 51 39 72.4 61.4 29.880 20.21 0.0 0 0.00 0.00 0.00 0.00
10/18/19 6:31:35 AM 22 4.0 35.0 51 39 72.4 61.7 29.879 20.21 0.0 0 0.00 0.00 0.00 0.00
10/18/19 6:32:26 AM 342 8.0 35.0 51 37 72.3 61.9 29.882 20.21 0.0 0 0.00 0.00 0.00 0.00
10/18/19 6:33:20 AM 37 10.0 35.0 51 36 72.3 62.2 29.882 20.21 0.0 0 0.00 0.00 0.00 0.00
10/18/19 6:34:26 AM 269 10.0 35.0 51 35 72.3 62.5 29.881 20.21 0.0 0 0.00 0.00 0.00 0.00
10/18/19 6:35:20 AM 346 11.0 35.0 51 35 72.3 62.6 29.881 20.21 0.0 0 0.00 0.00 0.00 0.00
10/18/19 6:36:32 AM 33 5.0 35.0 51 35 72.2 62.9 29.880 20.21 0.0 0 0.00 0.00 0.00 0.00
10/18/19 6:37:22 AM 5 8.0 35.0 51 34 72.2 63.1 29.880 20.21 0.0 0 0.00 0.00 0.00 0.00
10/18/19 6:38:34 AM 5 11.0 35.0 51 33 72.1 63.3 29.875 20.21 0.0 0 0.00 0.00 0.00 0.00
10/18/19 6:39:22 AM 33 11.0 35.0 51 33 72.1 63.4 29.875 20.21 0.0 0 0.00 0.00 0.00 0.00
10/18/19 6:40:34 AM 346 6.0 35.0 51 32 72.0 63.6 29.881 20.21 0.0 0 0.00 0.00 0.00 0.00
10/18/19 6:41:27 AM 5 8.0 35.0 51 32 71.9 63.7 29.881 20.21 0.0 0 0.00 0.00 0.00 0.00
10/18/19 6:42:18 AM 307 11.0 35.0 51 32 71.9 63.8 29.881 20.21 0.0 0 0.00 0.00 0.00 0.00
10/18/19 6:43:30 AM 57 14.0 35.0 51 31 71.8 64.0 29.877 20.21 0.0 0 0.00 0.00 0.00 0.00
10/18/19 6:44:23 AM 49 10.0 35.0 51 31 71.8 64.0 29.877 20.21 0.0 0 0.00 0.00 0.00 0.00
10/18/19 6:45:32 AM 29 19.0 35.0 51 32 71.7 64.1 29.876 20.21 0.0 0 0.00 0.00 0.00 0.00
10/18/19 6:46:23 AM 57 4.0 35.0 51 31 71.7 64.2 29.876 20.21 0.0 0 0.00 0.00 0.00 0.00
10/18/19 6:47:35 AM 277 8.0 35.0 51 31 71.6 64.3 29.876 20.21 0.0 0 0.00 0.00 0.00 0.00
10/18/19 6:48:28 AM 336 2.0 35.0 51 31 71.5 64.3 29.879 20.21 0.0 0 0.00 0.00 0.00 0.00
10/18/19 6:49:19 AM 316 24.0 35.0 51 31 71.5 64.3 29.879 20.21 0.0 0 0.00 0.00 0.00 0.00
10/18/19 6:50:28 AM 332 4.0 35.0 51 31 71.5 64.4 29.881 20.21 0.0 0 0.00 0.00 0.00 0.00
10/18/19 6:51:19 AM 322 13.0 35.0 51 31 71.5 64.5 29.881 20.21 0.0 0 0.00 0.00 0.00 0.00
10/18/19 6:52:30 AM 327 9.0 35.0 51 31 71.4 64.5 29.883 20.21 0.0 0 0.00 0.00 0.00 0.00
10/18/19 6:53:24 AM 360 17.0 35.0 51 31 71.4 64.5 29.883 20.21 0.0 0 0.00 0.00 0.00 0.00
10/18/19 6:54:36 AM 338 5.0 35.0 51 31 71.3 64.6 29.888 20.21 0.0 0 0.00 0.00 0.00 0.00
10/18/19 6:55:24 AM 304 13.0 35.0 51 31 71.3 64.6 29.888 20.21 0.0 0 0.00 0.00 0.00 0.00
10/18/19 6:56:17 AM 252 8.0 35.0 51 31 71.3 64.7 29.897 20.21 0.0 0 0.00 0.00 0.00 0.00
10/18/19 6:57:29 AM 185 3.0 35.0 51 30 71.3 64.7 29.896 20.21 0.0 0 0.00 0.00 0.00 0.00
10/18/19 6:58:23 AM 185 4.0 35.0 51 30 71.3 64.7 29.896 20.21 0.0 0 0.00 0.00 0.00 0.00
10/18/19 6:59:32 AM 126 8.0 35.0 51 30 71.3 64.7 29.889 20.21 0.0 5 0.00 0.00 0.00 0.00
10/18/19 7:00:26 AM 125 3.0 35.0 51 30 71.2 64.7 29.895 20.21 0.0 5 0.00 0.00 0.00 0.00
10/18/19 7:01:32 AM 194 5.0 35.0 51 30 71.2 64.7 29.891 20.21 0.0 5 0.00 0.00 0.00 0.00
10/18/19 7:02:25 AM 217 5.0 35.0 51 31 71.2 64.7 29.891 20.21 0.0 5 0.00 0.00 0.00 0.00
10/18/19 7:03:16 AM 251 5.0 35.0 51 31 71.2 64.7 29.891 20.21 0.0 5 0.00 0.00 0.00 0.00
10/18/19 7:04:31 AM 294 3.0 35.0 51 32 71.2 64.7 29.890 20.21 0.0 7 0.00 0.00 0.00 0.00
10/18/19 7:05:24 AM 292 4.0 35.0 51 33 71.2 64.6 29.890 20.21 0.0 7 0.00 0.00 0.00 0.00
10/18/19 7:06:30 AM 293 4.0 35.0 51 33 71.2 64.6 29.892 20.21 0.0 7 0.00 0.00 0.00 0.00
10/18/19 7:07:24 AM 288 2.0 35.0 51 35 71.2 64.5 29.892 20.21 0.0 7 0.00 0.00 0.00 0.00
10/18/19 7:08:36 AM 204 8.0 35.0 51 34 71.1 64.4 29.897 20.21 0.0 9 0.00 0.00 0.00 0.00
10/18/19 7:09:30 AM 200 3.0 35.0 51 35 71.1 64.3 29.898 20.21 0.0 9 0.00 0.00 0.00 0.00
10/18/19 7:10:20 AM 201 2.0 35.0 51 36 71.1 64.2 29.898 20.21 0.0 11 0.00 0.00 0.00 0.00
10/18/19 7:11:29 AM 204 8.0 35.0 51 35 71.2 64.1 29.897 20.21 0.0 11 0.00 0.00 0.00 0.00
10/18/19 7:12:20 AM 215 2.0 35.0 51 35 71.2 64.0 29.897 20.21 0.0 11 0.00 0.00 0.00 0.00
10/18/19 7:13:32 AM 200 7.0 35.0 51 33 71.1 63.8 29.898 20.21 0.0 12 0.00 0.00 0.00 0.00
10/18/19 7:14:23 AM 200 7.0 35.0 51 35 71.1 63.7 29.898 20.21 0.0 12 0.00 0.00 0.00 0.00
10/18/19 7:15:19 AM 200 8.0 35.0 51 35 71.1 63.7 29.899 20.21 0.0 12 0.00 0.00 0.00 0.00
10/18/19 7:16:28 AM 200 7.0 35.0 51 36 71.1 63.5 29.897 20.21 0.0 14 0.00 0.00 0.00 0.00
10/18/19 7:17:16 AM 200 3.0 35.0 51 36 71.1 63.4 29.897 20.21 0.0 16 0.00 0.00 0.00 0.00
10/18/19 7:18:28 AM 200 2.0 35.0 51 34 71.1 63.3 29.893 20.21 0.0 16 0.00 0.00 0.00 0.00
10/18/19 7:19:22 AM 191 4.0 35.0 51 35 71.1 63.2 29.893 20.21 0.0 18 0.00 0.00 0.00 0.00
10/18/19 7:20:33 AM 75 11.0 35.0 51 35 71.1 63.2 29.896 20.21 0.0 18 0.00 0.00 0.00 0.00
10/18/19 7:21:27 AM 89 12.0 35.0 51 36 71.1 63.1 29.901 20.21 0.0 19 0.00 0.00 0.00 0.00
10/18/19 7:22:36 AM 123 9.0 35.0 51 35 71.1 63.1 29.901 20.21 0.0 19 0.00 0.00 0.00 0.00
10/18/19 7:23:27 AM 121 5.0 35.0 51 33 71.1 63.2 29.900 20.21 0.0 21 0.00 0.00 0.00 0.00
10/18/19 7:24:18 AM 140 3.0 35.0 51 33 71.1 63.2 29.900 20.21 0.0 23 0.00 0.00 0.00 0.00
10/18/19 7:25:33 AM 140 2.0 35.0 51 32 71.1 63.3 29.905 20.21 0.0 25 0.00 0.00 0.00 0.00
10/18/19 7:26:24 AM 167 6.0 35.0 51 32 71.1 63.4 29.905 20.21 0.0 26 0.00 0.00 0.00 0.00
10/18/19 7:27:30 AM 285 1.0 35.0 51 32 71.2 63.5 29.908 20.21 0.0 28 0.00 0.00 0.00 0.00
10/18/19 7:28:24 AM 281 7.0 35.0 51 32 71.2 63.6 29.908 20.21 0.0 30 0.00 0.00 0.00 0.00
10/18/19 7:29:35 AM 267 8.0 35.0 51 32 71.2 63.6 29.904 20.21 0.0 30 0.00 0.00 0.00 0.00
10/18/19 7:30:29 AM 245 8.0 35.0 51 32 71.2 63.7 29.906 20.21 0.0 33 0.00 0.00 0.00 0.00
10/18/19 7:31:20 AM 221 8.0 35.0 51 32 71.2 63.7 29.906 20.21 0.0 35 0.00 0.00 0.00 0.00
10/18/19 7:32:35 AM 220 7.0 35.0 51 32 71.2 63.8 29.903 20.21 0.0 37 0.00 0.00 0.00 0.00
10/18/19 7:33:23 AM 206 8.0 35.0 51 32 71.2 63.8 29.903 20.21 0.0 37 0.00 0.00 0.00 0.00
10/18/19 7:34:35 AM 209 6.0 35.0 51 33 71.3 63.8 29.908 20.21 0.0 42 0.00 0.00 0.00 0.00
10/18/19 7:35:25 AM 197 7.0 35.0 51 32 71.3 63.8 29.902 20.21 0.0 44 0.00 0.00 0.00 0.00
10/18/19 7:36:19 AM 151 5.0 35.0 51 32 71.3 63.8 29.902 20.21 0.0 47 0.00 0.00 0.00 0.00
10/18/19 7:37:31 AM 49 3.0 35.0 51 31 71.3 63.9 29.910 20.21 0.0 49 0.00 0.00 0.00 0.00
10/18/19 7:38:19 AM 45 2.0 35.0 51 31 71.3 63.9 29.910 20.21 0.0 51 0.00 0.00 0.00 0.00
10/18/19 7:39:31 AM 329 11.0 35.0 51 31 71.3 64.1 29.909 20.21 0.0 53 0.00 0.00 0.00 0.00
10/18/19 7:40:22 AM 47 15.0 35.0 51 31 71.3 64.1 29.909 20.21 0.0 56 0.00 0.00 0.00 0.00
10/18/19 7:41:15 AM 63 14.0 35.0 51 33 71.2 64.2 29.910 20.21 0.0 58 0.00 0.00 0.00 0.00
10/18/19 7:42:27 AM 74 12.0 35.0 51 37 71.2 64.2 29.909 20.21 0.0 62 0.00 0.00 0.00 0.00
10/18/19 7:43:21 AM 32 13.0 35.0 51 37 71.2 64.1 29.909 20.21 0.0 63 0.00 0.00 0.00 0.00
10/18/19 7:44:30 AM 32 13.0 35.0 51 32 71.2 64.0 29.911 20.21 0.0 63 0.00 0.00 0.00 0.00
10/18/19 7:45:24 AM 49 9.0 35.0 51 32 71.2 64.1 29.911 20.21 0.0 69 0.00 0.00 0.00 0.00
10/18/19 7:46:33 AM 51 2.0 35.0 51 34 71.2 64.1 29.915 20.21 0.0 74 0.00 0.00 0.00 0.00
10/18/19 7:47:23 AM 71 2.0 35.0 51 34 71.2 64.2 29.915 20.21 0.0 74 0.00 0.00 0.00 0.00
10/18/19 7:48:17 AM 71 3.0 35.0 51 33 71.2 64.2 29.916 20.21 0.0 76 0.00 0.00 0.00 0.00
10/18/19 7:49:26 AM 26 14.0 35.0 51 35 71.2 64.2 29.918 20.21 0.0 81 0.00 0.00 0.00 0.00
10/18/19 7:50:35 AM 28 8.0 35.0 51 33 71.2 64.3 29.915 20.21 0.0 84 0.00 0.00 0.00 0.00
10/18/19 7:51:26 AM 67 13.0 35.0 51 34 71.2 64.3 29.911 20.21 0.0 86 0.00 0.00 0.00 0.00
10/18/19 7:52:20 AM 73 8.0 35.0 51 37 71.2 64.3 29.911 20.21 0.0 86 0.00 0.00 0.00 0.00
10/18/19 7:53:32 AM 40 10.0 35.0 51 37 71.2 64.2 29.916 20.21 0.0 91 0.00 0.00 0.00 0.00
10/18/19 7:54:20 AM 59 5.0 35.0 51 39 71.2 64.1 29.916 20.21 0.0 95 0.00 0.00 0.00 0.00
10/18/19 7:55:31 AM 88 18.0 35.0 51 39 71.2 63.9 29.915 20.21 0.0 98 0.00 0.00 0.00 0.00
10/18/19 7:56:22 AM 100 8.0 35.0 51 35 71.2 63.9 29.915 20.21 0.0 102 0.00 0.00 0.00 0.00
10/18/19 7:57:35 AM 87 7.0 35.0 51 32 71.2 64.0 29.920 20.21 0.0 105 0.00 0.00 0.00 0.00
10/18/19 7:58:29 AM 89 4.0 35.0 51 32 71.2 64.1 29.917 20.21 0.0 109 0.00 0.00 0.00 0.00
10/18/19 7:59:19 AM 82 10.0 35.0 51 31 71.2 64.3 29.917 20.21 0.0 111 0.00 0.00 0.00 0.00
10/18/19 8:00:28 AM 48 7.0 35.0 51 31 71.1 64.5 29.912 20.21 0.0 111 0.00 0.00 0.00 0.00
10/18/19 8:01:19 AM 41 7.0 35.0 51 31 71.1 64.6 29.912 20.21 0.0 118 0.00 0.00 0.00 0.00
10/18/19 8:02:34 AM 71 8.0 35.0 51 30 71.2 64.8 29.915 20.21 0.0 121 0.00 0.00 0.00 0.00
10/18/19 8:03:25 AM 74 8.0 35.0 51 31 71.2 64.9 29.915 20.21 0.0 121 0.00 0.00 0.00 0.00
10/18/19 8:04:15 AM 76 7.0 35.0 51 31 71.2 65.1 29.915 20.21 0.0 121 0.00 0.00 0.00 0.00
10/18/19 8:05:27 AM 69 8.0 35.0 51 31 71.3 65.2 29.918 20.21 0.0 135 0.00 0.00 0.00 0.00
10/18/19 8:06:18 AM 73 9.0 35.0 51 30 71.3 65.3 29.918 20.21 0.0 139 0.00 0.00 0.00 0.00
10/18/19 8:07:30 AM 63 4.0 35.0 51 30 71.3 65.4 29.921 20.21 0.0 142 0.00 0.00 0.00 0.00
10/18/19 8:08:24 AM 53 3.0 35.0 51 30 71.3 65.5 29.921 20.21 0.0 146 0.00 0.00 0.00 0.00
10/18/19 8:09:33 AM 53 0.0 35.0 51 30 71.3 65.5 29.918 20.21 0.0 149 0.00 0.00 0.00 0.00
10/18/19 8:10:21 AM 53 1.0 35.0 51 30 71.3 65.6 29.918 20.21 0.0 153 0.00 0.00 0.00 0.00
10/18/19 8:11:32 AM 55 4.0 35.0 51 30 71.3 65.6 29.917 20.21 0.0 156 0.00 0.00 0.00 0.00
10/18/19 8:12:23 AM 61 3.0 35.0 51 30 71.3 65.7 29.917 20.21 0.0 160 0.00 0.00 0.00 0.00
10/18/19 8:13:35 AM 92 10.0 35.0 51 29 71.3 65.8 29.921 20.21 0.0 163 0.00 0.00 0.00 0.00
10/18/19 8:14:29 AM 93 2.0 35.0 51 29 71.4 65.8 29.921 20.21 0.0 167 0.00 0.00 0.00 0.00
10/18/19 8:15:20 AM 91 6.0 35.0 51 29 71.4 65.9 29.921 20.21 0.0 167 0.00 0.00 0.00 0.00
10/18/19 8:16:29 AM 92 4.0 35.0 51 29 71.3 66.0 29.921 20.21 0.0 174 0.00 0.00 0.00 0.00
10/18/19 8:17:20 AM 123 5.0 35.0 51 30 71.3 66.1 29.921 20.21 0.0 176 0.00 0.00 0.00 0.00
10/18/19 8:18:32 AM 157 8.0 35.0 51 32 71.3 66.1 29.926 20.21 0.0 183 0.00 0.00 0.00 0.00
10/18/19 8:19:26 AM 174 3.0 35.0 51 32 71.4 66.2 29.927 20.21 0.0 186 0.00 0.00 0.00 0.00
10/18/19 8:20:19 AM 174 3.0 35.0 51 31 71.4 66.2 29.927 20.21 0.0 186 0.00 0.00 0.00 0.00
10/18/19 8:21:25 AM 174 2.0 35.0 51 31 71.4 66.2 29.921 20.21 0.0 193 0.00 0.00 0.00 0.00
10/18/19 8:22:19 AM 174 1.0 35.0 51 31 71.4 66.2 29.921 20.21 0.0 195 0.00 0.00 0.00 0.00
10/18/19 8:23:31 AM 64 6.0 35.0 51 31 71.4 66.2 29.924 20.21 0.0 199 0.00 0.00 0.00 0.00
10/18/19 8:24:22 AM 44 4.0 35.0 51 29 71.4 66.3 29.924 20.21 0.0 199 0.00 0.00 0.00 0.00
10/18/19 8:25:37 AM 44 0.0 35.0 51 29 71.5 66.3 29.926 20.21 0.0 199 0.00 0.00 0.00 0.00
10/18/19 8:26:25 AM 44 2.0 35.0 51 29 71.5 66.4 29.925 20.21 0.0 209 0.00 0.00 0.00 0.00
10/18/19 8:27:19 AM 44 2.0 35.0 51 29 71.5 66.5 29.925 20.21 0.0 209 0.00 0.00 0.00 0.00
10/18/19 8:28:31 AM 45 11.0 35.0 51 29 71.5 66.5 29.929 20.21 0.0 216 0.00 0.00 0.00 0.00
10/18/19 8:29:22 AM 40 2.0 35.0 51 28 71.5 66.6 29.929 20.21 0.0 216 0.00 0.00 0.00 0.00
10/18/19 8:30:34 AM 74 18.0 35.0 51 28 71.5 66.7 29.932 20.21 0.5 216 0.00 0.00 0.00 0.00
10/18/19 8:31:27 AM 86 7.0 35.0 51 28 71.5 66.8 29.929 20.21 0.5 216 0.00 0.00 0.00 0.00
10/18/19 8:32:37 AM 87 4.0 35.0 51 28 71.5 66.8 29.933 20.21 0.5 232 0.00 0.00 0.00 0.00
10/18/19 8:33:27 AM 87 1.0 35.0 51 28 71.5 66.9 29.935 20.21 0.5 236 0.00 0.00 0.00 0.00
10/18/19 8:34:18 AM 88 4.0 35.0 51 28 71.5 66.9 29.935 20.21 0.5 236 0.00 0.00 0.00 0.00
10/18/19 8:35:33 AM 83 2.0 35.0 51 28 71.5 67.0 29.932 20.21 0.5 239 0.00 0.00 0.00 0.00
10/18/19 8:36:24 AM 84 5.0 35.0 51 28 71.5 67.1 29.932 20.21 0.5 241 0.00 0.00 0.00 0.00
10/18/19 8:37:36 AM 85 2.0 35.0 51 28 71.5 67.1 29.934 20.21 0.5 244 0.00 0.00 0.00 0.00
10/18/19 8:38:27 AM 85 1.0 35.0 51 28 71.4 67.2 29.938 20.21 0.5 244 0.00 0.00 0.00 0.00
10/18/19 8:39:18 AM 85 4.0 35.0 51 28 71.4 67.2 29.938 20.21 0.6 251 0.00 0.00 0.00 0.00
10/18/19 8:40:30 AM 88 3.0 35.0 51 28 71.4 67.3 29.941 20.21 0.6 253 0.00 0.00 0.00 0.00
10/18/19 8:41:24 AM 88 3.0 35.0 51 28 71.4 67.4 29.941 20.21 0.6 258 0.00 0.00 0.00 0.00
10/18/19 8:42:30 AM 95 17.0 35.0 51 28 71.4 67.5 29.941 20.21 0.6 260 0.00 0.00 0.00 0.00
10/18/19 8:43:24 AM 98 11.0 35.0 51 27 71.4 67.6 29.941 20.21 0.6 262 0.00 0.00 0.00 0.00
10/18/19 8:44:36 AM 117 7.0 35.0 51 27 71.4 67.7 29.942 20.21 0.6 267 0.00 0.00 0.00 0.00
10/18/19 8:45:29 AM 133 11.0 35.0 51 27 71.4 67.7 29.938 20.21 0.6 269 0.00 0.00 0.00 0.00
10/18/19 8:46:23 AM 136 4.0 35.0 51 27 71.4 67.7 29.938 20.21 0.6 271 0.00 0.00 0.00 0.00
10/18/19 8:47:35 AM 136 3.0 35.0 51 27 71.4 67.8 29.939 20.21 0.6 278 0.00 0.00 0.00 0.00
10/18/19 8:48:23 AM 134 7.0 35.0 51 27 71.4 67.8 29.939 20.21 0.7 278 0.00 0.00 0.00 0.00
10/18/19 8:49:35 AM 131 8.0 35.0 51 27 71.3 67.9 29.941 20.21 0.7 283 0.00 0.00 0.00 0.00
10/18/19 8:50:26 AM 103 17.0 35.0 51 27 71.3 68.0 29.943 20.21 0.7 283 0.00 0.00 0.00 0.00
10/18/19 8:51:20 AM 111 11.0 35.0 51 27 71.3 68.0 29.943 20.21 0.7 288 0.00 0.00 0.00 0.00
10/18/19 8:52:32 AM 103 11.0 35.0 51 27 71.3 67.9 29.944 20.21 0.7 292 0.00 0.00 0.00 0.00
10/18/19 8:53:20 AM 101 8.0 35.0 51 27 71.3 67.8 29.944 20.21 0.7 295 0.00 0.00 0.00 0.00
10/18/19 8:54:32 AM 110 15.0 35.0 51 27 71.4 67.8 29.945 20.21 0.7 299 0.00 0.00 0.00 0.00
10/18/19 8:55:26 AM 94 11.0 35.0 51 28 71.3 67.8 29.945 20.21 0.7 302 0.00 0.00 0.00 0.00
10/18/19 8:56:17 AM 117 7.0 35.0 51 27 71.3 67.7 29.945 20.21 0.8 304 0.00 0.00 0.00 0.00
10/18/19 8:57:29 AM 130 16.0 35.0 51 28 71.3 67.8 29.950 20.21 0.8 308 0.00 0.00 0.00 0.00
10/18/19 8:58:20 AM 127 15.0 35.0 51 28 71.3 67.8 29.950 20.21 0.8 308 0.00 0.00 0.00 0.00
10/18/19 8:59:29 AM 105 16.0 35.0 51 27 71.3 67.9 29.947 20.21 0.8 315 0.00 0.00 0.00 0.00
10/18/19 9:00:20 AM 114 9.0 35.0 51 28 71.3 67.9 29.947 20.21 0.8 316 0.00 0.00 0.00 0.00
10/18/19 9:01:32 AM 105 6.0 35.0 51 27 71.3 67.9 29.954 20.21 0.8 322 0.00 0.00 0.00 0.00
10/18/19 9:02:26 AM 110 8.0 35.0 51 27 71.4 68.0 29.954 20.21 0.8 322 0.00 0.00 0.00 0.00
10/18/19 9:03:17 AM 126 5.0 35.0 51 27 71.4 68.0 29.956 20.21 0.9 325 0.00 0.00 0.00 0.00
10/18/19 9:04:26 AM 119 22.0 35.0 51 28 71.3 68.1 29.949 20.21 0.9 332 0.00 0.00 0.00 0.00
10/18/19 9:05:21 AM 127 8.0 35.0 51 27 71.3 68.1 29.949 20.21 0.9 334 0.00 0.00 0.00 0.00
10/18/19 9:06:30 AM 132 3.0 35.0 51 26 71.4 68.2 29.949 20.21 0.9 338 0.00 0.00 0.00 0.00
10/18/19 9:07:24 AM 157 10.0 35.0 51 27 71.4 68.3 29.949 20.21 0.9 343 0.00 0.00 0.00 0.00
10/18/19 9:08:33 AM 144 6.0 35.0 51 27 71.3 68.5 29.953 20.21 0.9 345 0.00 0.00 0.00 0.00
10/18/19 9:09:24 AM 98 7.0 35.0 51 27 71.3 68.6 29.953 20.21 0.9 345 0.00 0.00 0.00 0.00
10/18/19 9:10:36 AM 112 9.0 35.0 51 27 71.3 68.7 29.956 20.21 0.9 350 0.00 0.00 0.00 0.00
10/18/19 9:11:27 AM 107 9.0 35.0 51 27 71.3 68.7 29.955 20.21 1.0 350 0.00 0.00 0.00 0.00
10/18/19 9:12:21 AM 112 9.0 35.0 51 26 71.3 68.7 29.955 20.21 1.0 355 0.00 0.00 0.00 0.00
10/18/19 9:13:33 AM 109 15.0 35.0 51 27 71.4 68.7 29.955 20.21 1.0 355 0.00 0.00 0.00 0.00
10/18/19 9:14:24 AM 123 8.0 35.0 51 27 71.4 68.8 29.955 20.21 1.0 362 0.00 0.00 0.00 0.00
10/18/19 9:15:33 AM 150 8.0 35.0 51 27 71.4 68.8 29.956 20.21 1.0 362 0.00 0.00 0.00 0.00
10/18/19 9:16:24 AM 144 4.0 35.0 51 27 71.4 68.9 29.956 20.21 1.0 367 0.00 0.00 0.00 0.00
10/18/19 9:17:36 AM 142 6.0 35.0 51 27 71.4 69.0 29.962 20.21 1.1 374 0.00 0.00 0.00 0.00
10/18/19 9:18:27 AM 100 10.0 35.0 51 26 71.4 69.1 29.962 20.21 1.1 376 0.00 0.00 0.00 0.00
10/18/19 9:19:21 AM 100 3.0 35.0 51 26 71.4 69.2 29.962 20.21 1.1 376 0.00 0.00 0.00 0.00
10/18/19 9:20:27 AM 93 6.0 35.0 51 26 71.3 69.2 29.963 20.21 1.1 380 0.00 0.00 0.00 0.00
10/18/19 9:21:18 AM 94 6.0 35.0 51 26 71.3 69.2 29.963 20.21 1.1 385 0.00 0.00 0.00 0.00
10/18/19 9:22:30 AM 94 4.0 35.0 51 26 71.5 69.3 29.957 20.21 1.1 388 0.00 0.00 0.00 0.00
10/18/19 9:23:21 AM 94 2.0 35.0 51 26 71.5 69.4 29.957 20.21 1.2 388 0.00 0.00 0.00 0.00
10/18/19 9:24:37 AM 93 7.0 35.0 51 26 71.5 69.5 29.965 20.21 1.2 392 0.00 0.00 0.00 0.00
10/18/19 9:25:24 AM 93 2.0 35.0 51 26 71.5 69.6 29.965 20.21 1.2 392 0.00 0.00 0.00 0.00
10/18/19 9:26:34 AM 93 0.0 35.0 51 26 71.4 69.6 29.966 20.21 1.2 397 0.00 0.00 0.00 0.00
10/18/19 9:27:25 AM 93 1.0 35.0 51 26 71.5 69.6 29.966 20.21 1.2 397 0.00 0.00 0.00 0.00
10/18/19 9:28:19 AM 93 0.0 35.0 51 26 71.5 69.7 29.966 20.21 1.3 403 0.00 0.00 0.00 0.00
10/18/19 9:29:31 AM 93 2.0 35.0 51 26 71.5 69.9 29.965 20.21 1.3 403 0.00 0.00 0.00 0.00
10/18/19 9:30:22 AM 93 3.0 35.0 51 26 71.5 70.1 29.965 20.21 1.3 406 0.00 0.00 0.00 0.00
10/18/19 9:31:31 AM 84 11.0 35.0 51 26 71.5 70.3 29.968 20.21 1.3 411 0.00 0.00 0.00 0.00
10/18/19 9:32:22 AM 87 8.0 35.0 51 25 71.5 70.3 29.968 20.21 1.3 413 0.00 0.00 0.00 0.00
10/18/19 9:33:34 AM 69 8.0 35.0 51 25 71.6 70.3 29.968 20.21 1.3 418 0.00 0.00 0.00 0.00
10/18/19 9:34:28 AM 80 9.0 35.0 51 25 71.6 70.2 29.966 20.21 1.3 422 0.00 0.00 0.00 0.00
10/18/19 9:35:22 AM 78 7.0 35.0 51 25 71.6 70.1 29.966 20.21 1.3 422 0.00 0.00 0.00 0.00
10/18/19 9:36:28 AM 78 4.0 35.0 51 25 71.6 70.0 29.969 20.21 1.4 425 0.00 0.00 0.00 0.00
10/18/19 9:37:22 AM 76 4.0 35.0 51 25 71.6 70.0 29.969 20.21 1.4 429 0.00 0.00 0.00 0.00
10/18/19 9:38:34 AM 82 5.0 35.0 51 25 71.7 70.0 29.967 20.21 1.4 429 0.00 0.00 0.00 0.00
10/18/19 9:39:28 AM 81 3.0 35.0 51 25 71.6 70.0 29.965 20.21 1.4 429 0.00 0.00 0.00 0.00
10/18/19 9:40:19 AM 77 8.0 35.0 51 25 71.6 69.9 29.965 20.21 1.4 429 0.00 0.00 0.00 0.00
10/18/19 9:41:28 AM 65 6.0 35.0 51 25 71.7 69.9 29.968 20.21 1.4 441 0.00 0.00 0.00 0.00
10/18/19 9:42:19 AM 53 10.0 35.0 51 25 71.7 69.9 29.968 20.21 1.4 441 0.00 0.00 0.00 0.00
10/18/19 9:43:31 AM 86 9.0 35.0 51 25 71.7 69.8 29.965 20.21 1.5 446 0.00 0.00 0.00 0.00
10/18/19 9:44:22 AM 86 7.0 35.0 51 26 71.7 69.8 29.965 20.21 1.5 448 0.00 0.00 0.00 0.00
10/18/19 9:45:38 AM 85 3.0 35.0 51 26 71.7 69.7 29.965 20.21 1.5 452 0.00 0.00 0.00 0.00
10/18/19 9:46:28 AM 82 3.0 35.0 51 26 71.7 69.8 29.963 20.21 1.5 452 0.00 0.00 0.00 0.00
10/18/19 9:47:16 AM 81 1.0 35.0 51 27 71.7 69.9 29.963 20.21 1.6 455 0.00 0.00 0.00 0.00
10/18/19 9:48:29 AM 242 9.0 35.0 51 27 71.7 70.0 29.966 20.21 1.6 462 0.00 0.00 0.00 0.00
10/18/19 9:49:22 AM 241 1.0 35.0 51 27 71.7 70.2 29.966 20.21 1.6 462 0.00 0.00 0.00 0.00
10/18/19 9:50:35 AM 313 8.0 35.0 51 27 71.7 70.3 29.968 20.21 1.6 466 0.00 0.00 0.00 0.00
10/18/19 9:51:28 AM 312 12.0 35.0 51 27 71.7 70.4 29.969 20.21 1.6 468 0.00 0.00 0.00 0.00
10/18/19 9:52:35 AM 310 8.0 35.0 51 26 71.7 70.4 29.971 20.21 1.7 471 0.00 0.00 0.00 0.00
10/18/19 9:53:26 AM 313 5.0 35.0 51 26 71.7 70.4 29.973 20.21 1.7 473 0.00 0.00 0.00 0.00
10/18/19 9:54:20 AM 311 5.0 35.0 51 26 71.7 70.4 29.973 20.21 1.7 476 0.00 0.00 0.00 0.00
10/18/19 9:55:32 AM 283 9.0 35.0 51 26 71.7 70.4 29.971 20.21 1.7 480 0.00 0.00 0.00 0.00
10/18/19 9:56:26 AM 286 14.0 35.0 51 26 71.7 70.4 29.971 20.21 1.7 483 0.00 0.00 0.00 0.00
10/18/19 9:57:17 AM 283 10.0 35.0 51 26 71.7 70.3 29.970 20.21 1.7 483 0.00 0.00 0.00 0.00
10/18/19 9:58:26 AM 288 7.0 35.0 51 26 71.7 70.2 29.976 20.21 1.7 487 0.00 0.00 0.00 0.00
10/18/19 9:59:17 AM 295 10.0 35.0 51 26 71.7 70.2 29.976 20.21 1.8 487 0.00 0.00 0.00 0.00
10/18/19 10:00:29 AM 309 13.0 35.0 51 26 71.6 70.1 29.974 20.21 1.8 492 0.00 0.00 0.00 0.00
10/18/19 10:01:20 AM 309 5.0 35.0 51 26 71.6 70.0 29.974 20.21 1.8 494 0.00 0.00 0.00 0.00
10/18/19 10:02:32 AM 263 10.0 35.0 51 27 71.6 69.9 29.978 20.21 1.8 499 0.00 0.00 0.00 0.00
10/18/19 10:03:20 AM 299 21.0 35.0 51 27 71.6 69.9 29.978 20.21 1.9 499 0.00 0.00 0.00 0.00
10/18/19 10:04:36 AM 278 11.0 35.0 51 26 71.6 69.9 29.979 20.21 1.9 503 0.00 0.00 0.00 0.00
10/18/19 10:05:27 AM 270 6.0 35.0 51 26 71.6 69.8 29.975 20.21 1.9 504 0.00 0.00 0.00 0.00
10/18/19 10:06:21 AM 268 3.0 35.0 51 27 71.6 69.9 29.975 20.21 1.9 506 0.00 0.00 0.00 0.00
10/18/19 10:07:33 AM 315 10.0 35.0 51 27 71.6 69.9 29.974 20.21 1.9 508 0.00 0.00 0.00 0.00
10/18/19 10:08:21 AM 302 13.0 35.0 51 27 71.6 70.0 29.974 20.21 2.0 508 0.00 0.00 0.00 0.00
10/18/19 10:09:33 AM 302 11.0 35.0 51 27 71.6 70.1 29.980 20.21 2.0 513 0.00 0.00 0.00 0.00
10/18/19 10:10:24 AM 296 12.0 35.0 51 27 71.6 70.1 29.980 20.21 2.0 517 0.00 0.00 0.00 0.00
10/18/19 10:11:18 AM 313 5.0 35.0 51 27 71.6 70.0 29.974 20.21 2.0 519 0.00 0.00 0.00 0.00
10/18/19 10:12:30 AM 292 9.0 35.0 51 26 71.6 69.9 29.980 20.21 2.0 520 0.00 0.00 0.00 0.00
10/18/19 10:13:24 AM 300 12.0 35.0 51 27 71.6 69.9 29.980 20.21 2.0 522 0.00 0.00 0.00 0.00
10/18/19 10:14:30 AM 277 11.0 35.0 51 27 71.6 69.9 29.983 20.21 2.1 522 0.00 0.00 0.00 0.00
10/18/19 10:15:24 AM 307 7.0 35.0 51 27 71.6 69.9 29.983 20.21 2.1 529 0.00 0.00 0.00 0.00
10/18/19 10:16:15 AM 318 14.0 35.0 51 28 71.6 69.9 29.979 20.21 2.1 529 0.00 0.00 0.00 0.00
10/18/19 10:17:30 AM 294 7.0 35.0 51 28 71.7 70.1 29.982 20.21 2.1 536 0.00 0.00 0.00 0.00
10/18/19 10:18:21 AM 304 4.0 35.0 51 26 71.7 70.1 29.982 20.21 2.1 536 0.00 0.00 0.00 0.00
10/18/19 10:19:30 AM 304 4.0 35.0 51 26 71.7 70.2 29.978 20.21 2.1 540 0.00 0.00 0.00 0.00
10/18/19 10:20:21 AM 320 12.0 35.0 51 27 71.7 70.3 29.978 20.21 2.2 541 0.00 0.00 0.00 0.00
10/18/19 10:21:34 AM 308 7.0 35.0 51 26 71.7 70.3 29.978 20.21 2.2 545 0.00 0.00 0.00 0.00
10/18/19 10:22:28 AM 308 1.0 35.0 51 26 71.7 70.4 29.978 20.21 2.2 545 0.00 0.00 0.00 0.00
10/18/19 10:23:18 AM 308 1.0 35.0 51 26 71.7 70.5 29.978 20.21 2.2 548 0.00 0.00 0.00 0.00
10/18/19 10:24:28 AM 315 11.0 35.0 51 26 71.7 70.6 29.976 20.21 2.2 548 0.00 0.00 0.00 0.00
10/18/19 10:25:22 AM 309 11.0 35.0 51 27 71.7 70.7 29.976 20.21 2.3 552 0.00 0.00 0.00 0.00
10/18/19 10:26:31 AM 313 14.0 35.0 51 27 71.8 70.7 29.975 20.21 2.3 554 0.00 0.00 0.00 0.00
10/18/19 10:27:22 AM 300 9.0 35.0 51 27 71.8 70.8 29.975 20.21 2.3 557 0.00 0.00 0.00 0.00
10/18/19 10:28:37 AM 294 12.0 35.0 51 27 71.8 70.9 29.976 20.21 2.3 559 0.00 0.00 0.00 0.00
10/18/19 10:29:28 AM 305 12.0 35.0 51 26 71.8 70.9 29.975 20.21 2.3 561 0.00 0.00 0.00 0.00
10/18/19 10:30:17 AM 317 11.0 35.0 51 26 71.8 70.9 29.975 20.21 2.3 564 0.00 0.00 0.00 0.00
10/18/19 10:31:29 AM 307 14.0 35.0 51 26 71.9 71.0 29.977 20.21 2.4 566 0.00 0.00 0.00 0.00
10/18/19 10:32:20 AM 319 16.0 35.0 51 26 71.9 71.0 29.977 20.21 2.4 566 0.00 0.00 0.00 0.00
10/18/19 10:33:32 AM 291 12.0 35.0 51 25 71.9 71.0 29.978 20.21 2.4 570 0.00 0.00 0.00 0.00
10/18/19 10:34:26 AM 321 14.0 35.0 51 25 71.9 71.0 29.978 20.21 2.4 575 0.00 0.00 0.00 0.00
10/18/19 10:35:35 AM 319 16.0 35.0 51 26 71.9 71.0 29.976 20.21 0.0 577 0.00 0.00 0.00 0.00
10/18/19 10:36:26 AM 307 13.0 35.0 51 26 71.9 71.0 29.976 20.21 0.0 580 0.00 0.00 0.00 0.00
10/18/19 10:37:17 AM 312 11.0 35.0 51 25 71.9 71.1 29.976 20.21 0.0 580 0.00 0.00 0.00 0.00
10/18/19 10:38:30 AM 327 11.0 35.0 51 25 71.9 71.0 29.973 20.21 0.8 580 0.00 0.00 0.00 0.00
10/18/19 10:39:24 AM 341 12.0 35.0 51 26 71.9 71.1 29.973 20.21 1.1 584 0.00 0.00 0.00 0.00
10/18/19 10:40:30 AM 341 8.0 35.0 51 24 71.9 71.0 29.973 20.21 1.0 587 0.00 0.00 0.00 0.00
10/18/19 10:41:24 AM 336 11.0 35.0 51 24 71.9 71.1 29.973 20.21 0.0 589 0.00 0.00 0.00 0.00
10/18/19 10:42:36 AM 355 13.0 35.0 51 25 71.9 71.1 29.970 20.21 0.0 591 0.00 0.00 0.00 0.00
10/18/19 10:43:27 AM 329 14.0 35.0 51 25 71.9 71.2 29.972 20.21 0.0 591 0.00 0.00 0.00 0.00
10/18/19 10:44:18 AM 336 13.0 35.0 51 24 71.9 71.2 29.972 20.21 2.4 58 0.00 0.00 0.00 0.00
10/18/19 10:45:33 AM 348 6.0 35.0 51 24 71.9 71.3 29.967 20.21 2.6 58 0.00 0.00 0.00 0.00
10/18/19 10:46:19 AM 17 13.0 35.0 51 25 71.9 71.4 29.967 20.21 2.6 598 0.00 0.00 0.00 0.00
10/18/19 10:47:31 AM 5 10.0 35.0 51 25 72.0 71.5 29.963 20.21 2.6 603 0.00 0.00 0.00 0.00
10/18/19 10:48:25 AM 11 10.0 35.0 51 24 72.0 71.6 29.963 20.21 2.7 603 0.00 0.00 0.00 0.00
10/18/19 10:49:16 AM 30 17.0 35.0 51 24 71.9 71.7 29.960 20.21 2.7 605 0.00 0.00 0.00 0.00
10/18/19 10:50:28 AM 355 12.0 35.0 51 22 72.0 71.9 29.963 20.21 2.7 610 0.00 0.00 0.00 0.00
10/18/19 10:51:16 AM 329 16.0 35.0 51 22 72.0 72.0 29.963 20.21 2.7 610 0.00 0.00 0.00 0.00
10/18/19 10:52:29 AM 346 12.0 35.0 51 22 72.0 72.2 29.963 20.21 2.7 612 0.00 0.00 0.00 0.00
10/18/19 10:53:23 AM 330 19.0 35.0 51 22 72.0 72.3 29.963 20.21 2.8 613 0.00 0.00 0.00 0.00
10/18/19 10:54:35 AM 347 12.0 35.0 51 23 72.0 72.4 29.969 20.21 2.8 613 0.00 0.00 0.00 0.00
10/18/19 10:55:26 AM 331 16.0 35.0 51 24 72.0 72.4 29.960 20.21 2.8 619 0.00 0.00 0.00 0.00
10/18/19 10:56:20 AM 333 21.0 35.0 51 23 72.0 72.5 29.960 20.21 2.8 621 0.00 0.00 0.00 0.00
10/18/19 10:57:26 AM 340 18.0 35.0 51 22 72.0 72.5 29.963 20.21 2.8 621 0.00 0.00 0.00 0.00
10/18/19 10:58:17 AM 318 16.0 35.0 51 23 72.0 72.5 29.963 20.21 2.8 622 0.00 0.00 0.00 0.00
10/18/19 10:59:30 AM 344 16.0 35.0 51 23 71.9 72.5 29.957 20.21 2.9 626 0.00 0.00 0.00 0.00
10/18/19 11:00:24 AM 348 11.0 35.0 51 22 71.9 72.4 29.957 20.21 2.9 628 0.00 0.00 0.00 0.00
10/18/19 11:01:18 AM 335 11.0 35.0 51 22 72.0 72.4 29.956 20.21 2.9 629 0.00 0.00 0.00 0.00
10/18/19 11:02:24 AM 323 18.0 35.0 51 23 72.0 72.5 29.959 20.21 2.9 629 0.00 0.00 0.00 0.00
10/18/19 11:03:18 AM 333 17.0 35.0 51 23 72.0 72.5 29.951 20.21 2.9 628 0.00 0.00 0.00 0.00
10/18/19 11:04:30 AM 324 17.0 35.0 51 23 72.0 72.6 29.962 20.21 2.9 633 0.00 0.00 0.00 0.00
10/18/19 11:05:24 AM 327 29.0 35.0 51 23 72.0 72.6 29.962 20.21 2.9 633 0.00 0.00 0.00 0.00
10/18/19 11:06:34 AM 325 24.0 35.0 51 23 72.0 72.7 29.956 20.21 3.0 638 0.00 0.00 0.00 0.00
10/18/19 11:07:22 AM 336 18.0 35.0 51 21 72.0 72.7 29.956 20.21 3.0 640 0.00 0.00 0.00 0.00
10/18/19 11:08:16 AM 338 16.0 35.0 51 21 72.0 72.6 29.956 20.21 3.0 640 0.00 0.00 0.00 0.00
10/18/19 11:09:28 AM 323 15.0 35.0 51 22 72.0 72.6 29.960 20.21 3.0 640 0.00 0.00 0.00 0.00
10/18/19 11:10:19 AM 350 15.0 35.0 51 22 72.0 72.6 29.960 20.21 3.0 643 0.00 0.00 0.00 0.00
10/18/19 11:11:32 AM 324 16.0 35.0 51 22 72.0 72.7 29.958 20.21 3.0 643 0.00 0.00 0.00 0.00
10/18/19 11:12:26 AM 336 21.0 35.0 51 22 72.0 72.7 29.958 20.21 3.1 645 0.00 0.00 0.00 0.00
10/18/19 11:13:35 AM 333 16.0 35.0 51 22 72.0 72.7 29.953 20.21 3.1 645 0.00 0.00 0.00 0.00
10/18/19 11:14:26 AM 313 17.0 35.0 51 22 72.1 72.7 29.955 20.21 3.1 647 0.00 0.00 0.00 0.00
10/18/19 11:15:20 AM 333 6.0 35.0 51 22 72.1 72.7 29.955 20.21 3.1 647 0.00 0.00 0.00 0.00
10/18/19 11:16:30 AM 344 12.0 35.0 51 22 72.1 72.8 29.956 20.21 3.1 650 0.00 0.00 0.00 0.00
10/18/19 11:17:24 AM 5 15.0 35.0 51 22 72.1 72.9 29.956 20.21 3.1 652 0.00 0.00 0.00 0.00
10/18/19 11:18:30 AM 328 12.0 35.0 51 22 72.1 73.0 29.960 20.21 3.1 654 0.00 0.00 0.00 0.00
10/18/19 11:19:24 AM 321 17.0 35.0 51 22 72.1 73.1 29.960 20.21 3.1 654 0.00 0.00 0.00 0.00
10/18/19 11:20:33 AM 329 12.0 35.0 51 21 72.1 73.1 29.961 20.21 3.2 659 0.00 0.00 0.00 0.00
10/18/19 11:21:28 AM 340 19.0 35.0 51 21 72.1 73.1 29.960 20.21 3.2 661 0.00 0.00 0.00 0.00
10/18/19 11:22:22 AM 319 14.0 35.0 51 22 72.1 73.0 29.960 20.21 3.2 661 0.00 0.00 0.00 0.00
10/18/19 11:23:28 AM 336 15.0 35.0 51 22 72.2 73.0 29.957 20.21 3.2 661 0.00 0.00 0.00 0.00
10/18/19 11:24:19 AM 355 20.0 35.0 51 22 72.2 73.0 29.957 20.21 3.2 664 0.00 0.00 0.00 0.00
10/18/19 11:25:34 AM 307 12.0 35.0 51 21 72.2 73.0 29.961 20.21 3.2 664 0.00 0.00 0.00 0.00
10/18/19 11:26:26 AM 316 16.0 35.0 51 22 72.2 73.0 29.963 20.21 3.2 664 0.00 0.00 0.00 0.00
10/18/19 11:27:17 AM 355 13.0 35.0 51 22 72.2 73.1 29.963 20.21 3.2 668 0.00 0.00 0.00 0.00
10/18/19 11:28:29 AM 322 16.0 35.0 51 21 72.2 73.2 29.954 20.21 3.3 668 0.00 0.00 0.00 0.00
10/18/19 11:29:17 AM 346 9.0 35.0 51 21 72.2 73.2 29.954 20.21 3.3 670 0.00 0.00 0.00 0.00
10/18/19 11:30:30 AM 318 11.0 35.0 51 20 72.3 73.3 29.960 20.21 3.3 670 0.00 0.00 0.00 0.00
10/18/19 11:31:24 AM 319 11.0 35.0 51 21 72.3 73.3 29.960 20.21 3.3 670 0.00 0.00 0.00 0.00
10/18/19 11:32:36 AM 336 6.0 35.0 51 21 72.3 73.3 29.960 20.21 3.3 671 0.00 0.00 0.00 0.00
10/18/19 11:33:27 AM 334 6.0 35.0 51 21 72.3 73.4 29.959 20.21 3.3 671 0.00 0.00 0.00 0.00
10/18/19 11:34:36 AM 330 6.0 35.0 51 21 72.3 73.5 29.958 20.21 3.3 671 0.00 0.00 0.00 0.00
10/18/19 11:35:27 AM 333 4.0 35.0 51 21 72.4 73.6 29.960 20.21 3.3 671 0.00 0.00 0.00 0.00
10/18/19 11:36:19 AM 317 10.0 35.0 51 21 72.4 73.7 29.960 20.21 3.3 673 0.00 0.00 0.00 0.00
10/18/19 11:37:34 AM 346 15.0 35.0 51 21 72.4 73.9 29.961 20.21 3.4 671 0.00 0.00 0.00 0.00
10/18/19 11:38:25 AM 355 4.0 35.0 51 20 72.4 74.0 29.961 20.21 3.4 675 0.00 0.00 0.00 0.00
10/18/19 11:39:16 AM 323 14.0 35.0 51 21 72.4 74.2 29.959 20.21 3.4 677 0.00 0.00 0.00 0.00
10/18/19 11:40:25 AM 355 16.0 35.0 51 20 72.4 74.2 29.960 20.21 3.4 677 0.00 0.00 0.00 0.00
10/18/19 11:41:17 AM 28 12.0 35.0 51 20 72.4 74.2 29.960 20.21 3.4 680 0.00 0.00 0.00 0.00
10/18/19 11:42:32 AM 335 18.0 35.0 51 20 72.4 74.3 29.964 20.21 3.4 680 0.00 0.00 0.00 0.00
10/18/19 11:43:23 AM 325 16.0 35.0 51 20 72.4 74.2 29.964 20.21 3.4 680 0.00 0.00 0.00 0.00
10/18/19 11:44:35 AM 13 8.0 35.0 51 20 72.4 74.2 29.961 20.21 3.4 682 0.00 0.00 0.00 0.00
10/18/19 11:45:23 AM 12 11.0 35.0 51 19 72.4 74.2 29.961 20.21 3.4 682 0.00 0.00 0.00 0.00
10/18/19 11:46:36 AM 360 6.0 35.0 51 20 72.5 74.2 29.960 20.21 3.4 684 0.00 0.00 0.00 0.00
10/18/19 11:47:27 AM 360 5.0 35.0 51 19 72.5 74.2 29.958 20.21 3.5 684 0.00 0.00 0.00 0.00
10/18/19 11:48:21 AM 340 9.0 35.0 51 20 72.5 74.2 29.958 20.21 3.5 687 0.00 0.00 0.00 0.00
10/18/19 11:49:34 AM 314 8.0 35.0 51 20 72.5 74.4 29.960 20.21 3.5 689 0.00 0.00 0.00 0.00
10/18/19 11:50:22 AM 308 8.0 35.0 51 21 72.5 74.4 29.960 20.21 3.5 689 0.00 0.00 0.00 0.00
10/18/19 11:51:34 AM 302 8.0 35.0 51 21 72.5 74.6 29.962 20.21 3.5 687 0.00 0.00 0.00 0.00
10/18/19 11:52:25 AM 308 9.0 35.0 51 20 72.5 74.7 29.962 20.21 3.5 689 0.00 0.00 0.00 0.00
10/18/19 11:53:19 AM 303 5.0 35.0 51 19 72.5 74.8 29.960 20.21 3.5 689 0.00 0.00 0.00 0.00
10/18/19 11:54:28 AM 296 4.0 35.0 51 20 72.5 74.9 29.960 20.21 3.6 693 0.00 0.00 0.00 0.00
10/18/19 11:55:23 AM 325 14.0 35.0 51 20 72.5 75.0 29.960 20.21 3.6 694 0.00 0.00 0.00 0.00
10/18/19 11:56:32 AM 320 14.0 35.0 51 20 72.5 75.1 29.955 20.21 3.6 693 0.00 0.00 0.00 0.00
10/18/19 11:57:23 AM 317 11.0 35.0 51 20 72.5 75.1 29.955 20.21 3.6 693 0.00 0.00 0.00 0.00
10/18/19 11:58:35 AM 339 9.0 35.0 51 19 72.5 75.0 29.958 20.21 3.6 693 0.00 0.00 0.00 0.00
10/18/19 11:59:27 AM 319 12.0 35.0 51 19 72.5 75.0 29.957 20.21 3.6 693 0.00 0.00 0.00 0.00
10/18/19 12:00:21 PM 340 15.0 35.0 51 20 72.5 74.9 29.957 20.21 3.6 696 0.00 0.00 0.00 0.00
10/18/19 12:01:27 PM 304 18.0 35.0 51 20 72.6 74.9 29.952 20.21 3.6 696 0.00 0.00 0.00 0.00
10/18/19 12:02:18 PM 319 11.0 35.0 51 19 72.6 74.9 29.952 20.21 3.6 700 0.00 0.00 0.00 0.00
10/18/19 12:03:34 PM 294 11.0 35.0 51 21 72.6 74.9 29.948 20.21 3.6 694 0.00 0.00 0.00 0.00
10/18/19 12:04:25 PM 297 10.0 35.0 51 20 72.6 74.9 29.948 20.21 3.6 700 0.00 0.00 0.00 0.00
10/18/19 12:05:19 PM 304 9.0 35.0 51 20 72.6 75.0 29.948 20.21 3.6 700 0.00 0.00 0.00 0.00
10/18/19 12:06:25 PM 319 18.0 35.0 51 20 72.6 75.0 29.955 20.21 3.6 698 0.00 0.00 0.00 0.00
10/18/19 12:07:16 PM 298 5.0 35.0 51 19 72.6 75.1 29.948 20.21 3.6 703 0.00 0.00 0.00 0.00
10/18/19 12:08:29 PM 302 12.0 35.0 51 19 72.6 75.2 29.947 20.21 3.7 701 0.00 0.00 0.00 0.00
10/18/19 12:09:20 PM 309 11.0 35.0 51 19 72.6 75.3 29.947 20.21 3.5 701 0.00 0.00 0.00 0.00
10/18/19 12:10:33 PM 341 13.0 35.0 51 18 72.6 75.4 29.947 20.21 3.5 496 0.00 0.00 0.00 0.00
10/18/19 12:11:27 PM 340 10.0 35.0 51 18 72.6 75.5 29.944 20.21 3.6 406 0.00 0.00 0.00 0.00
10/18/19 12:12:33 PM 339 11.0 35.0 51 18 72.6 75.5 29.944 20.21 3.6 406 0.00 0.00 0.00 0.00
10/18/19 12:13:24 PM 337 12.0 35.0 51 18 72.6 75.5 29.944 20.21 3.6 406 0.00 0.00 0.00 0.00
10/18/19 12:14:19 PM 321 10.0 35.0 51 18 72.6 75.6 29.944 20.21 3.6 406 0.00 0.00 0.00 0.00
10/18/19 12:15:31 PM 311 9.0 35.0 51 18 72.6 75.7 29.943 20.21 3.6 237 0.00 0.00 0.00 0.00
10/18/19 12:16:26 PM 307 12.0 35.0 51 18 72.6 75.7 29.943 20.21 3.6 325 0.00 0.00 0.00 0.00
10/18/19 12:17:32 PM 320 12.0 35.0 51 18 72.7 75.9 29.940 20.21 3.7 325 0.00 0.00 0.00 0.00
10/18/19 12:18:26 PM 308 13.0 35.0 51 18 72.7 76.0 29.940 20.21 3.7 325 0.00 0.00 0.00 0.00
10/18/19 12:19:17 PM 335 15.0 35.0 51 17 72.7 76.1 29.940 20.21 3.7 325 0.00 0.00 0.00 0.00
10/18/19 12:20:30 PM 5 8.0 35.0 51 17 72.7 76.2 29.937 20.21 3.6 325 0.00 0.00 0.00 0.00
10/18/19 12:21:21 PM 5 13.0 35.0 51 17 72.7 76.2 29.937 20.21 3.6 740 0.00 0.00 0.00 0.00
10/18/19 12:22:30 PM 328 15.0 35.0 51 17 72.7 76.3 29.939 20.21 3.7 710 0.00 0.00 0.00 0.00
10/18/19 12:23:24 PM 348 5.0 35.0 51 16 72.7 76.4 29.939 20.21 3.7 710 0.00 0.00 0.00 0.00
10/18/19 12:24:16 PM 311 11.0 35.0 51 16 72.8 76.4 29.936 20.21 3.7 708 0.00 0.00 0.00 0.00
10/18/19 12:25:28 PM 330 17.0 35.0 51 16 72.8 76.4 29.939 20.21 3.7 712 0.00 0.00 0.00 0.00
10/18/19 12:26:19 PM 342 20.0 35.0 51 17 72.8 76.4 29.939 20.21 3.7 710 0.00 0.00 0.00 0.00
10/18/19 12:27:32 PM 343 6.0 35.0 51 16 72.8 76.4 29.927 20.21 3.7 710 0.00 0.00 0.00 0.00
10/18/19 12:28:20 PM 339 11.0 35.0 51 16 72.8 76.4 29.927 20.21 3.7 712 0.00 0.00 0.00 0.00
10/18/19 12:29:35 PM 24 11.0 35.0 51 16 72.8 76.4 29.927 20.21 3.7 710 0.00 0.00 0.00 0.00
10/18/19 12:30:26 PM 30 15.0 35.0 51 16 72.9 76.3 29.930 20.21 3.7 714 0.00 0.00 0.00 0.00
10/18/19 12:31:18 PM 355 15.0 35.0 51 16 72.9 76.4 29.930 20.21 3.7 714 0.00 0.00 0.00 0.00
10/18/19 12:32:30 PM 355 15.0 35.0 51 16 72.9 76.4 29.928 20.21 3.7 714 0.00 0.00 0.00 0.00
10/18/19 12:33:18 PM 355 15.0 35.0 51 16 72.9 76.4 29.928 20.21 3.7 714 0.00 0.00 0.00 0.00
10/18/19 12:34:31 PM 355 15.0 35.0 51 16 72.9 76.4 29.927 20.21 3.7 714 0.00 0.00 0.00 0.00
10/18/19 12:35:28 PM 323 15.0 35.0 51 16 72.9 76.3 29.927 20.21 3.7 714 0.00 0.00 0.00 0.00
10/18/19 12:36:19 PM 344 13.0 35.0 51 16 73.0 76.2 29.930 20.21 3.7 714 0.00 0.00 0.00 0.00
10/18/19 12:37:32 PM 5 8.0 35.0 51 17 73.0 76.2 29.926 20.21 3.7 714 0.00 0.00 0.00 0.00
10/18/19 12:38:23 PM 326 15.0 35.0 51 17 73.0 76.2 29.926 20.21 3.7 712 0.00 0.00 0.00 0.00
10/18/19 12:39:32 PM 298 3.0 35.0 51 16 72.9 76.4 29.927 20.21 3.7 712 0.00 0.00 0.00 0.00
10/18/19 12:40:23 PM 338 9.0 35.0 51 16 72.9 76.4 29.927 20.21 3.8 714 0.00 0.00 0.00 0.00
10/18/19 12:41:14 PM 336 10.0 35.0 51 15 73.0 76.5 29.924 20.21 3.8 714 0.00 0.00 0.00 0.00
10/18/19 12:42:30 PM 323 11.0 35.0 51 15 73.0 76.5 29.921 20.21 3.7 714 0.00 0.00 0.00 0.00
10/18/19 12:43:21 PM 311 19.0 35.0 51 16 73.0 76.5 29.921 20.21 3.7 714 0.00 0.00 0.00 0.00
10/18/19 12:44:30 PM 311 13.0 35.0 51 16 73.0 76.6 29.922 20.21 3.7 715 0.00 0.00 0.00 0.00
10/18/19 12:45:28 PM 310 13.0 35.0 51 16 73.0 76.6 29.922 20.21 3.7 712 0.00 0.00 0.00 0.00
10/18/19 12:46:16 PM 327 14.0 35.0 51 15 73.0 76.6 29.920 20.21 3.7 712 0.00 0.00 0.00 0.00
10/18/19 12:47:28 PM 336 16.0 35.0 51 15 73.0 76.6 29.918 20.21 3.7 714 0.00 0.00 0.00 0.00
10/18/19 12:48:23 PM 355 6.0 35.0 51 15 73.0 76.6 29.918 20.21 3.7 714 0.00 0.00 0.00 0.00
10/18/19 12:49:29 PM 355 2.0 35.0 51 15 73.0 76.6 29.922 20.21 3.7 712 0.00 0.00 0.00 0.00
10/18/19 12:50:23 PM 355 8.0 35.0 51 15 73.0 76.7 29.922 20.21 3.7 712 0.00 0.00 0.00 0.00
10/18/19 12:51:36 PM 341 19.0 35.0 51 15 73.0 76.8 29.916 20.21 3.7 710 0.00 0.00 0.00 0.00
10/18/19 12:52:27 PM 338 13.0 35.0 51 14 73.0 76.9 29.915 20.21 3.7 712 0.00 0.00 0.00 0.00
10/18/19 12:53:21 PM 346 14.0 35.0 51 14 73.0 76.9 29.915 20.21 3.7 712 0.00 0.00 0.00 0.00
10/18/19 12:54:30 PM 360 6.0 35.0 51 15 73.0 76.9 29.913 20.21 3.7 710 0.00 0.00 0.00 0.00
10/18/19 12:55:22 PM 360 5.0 35.0 51 15 73.0 77.0 29.913 20.21 3.7 710 0.00 0.00 0.00 0.00
10/18/19 12:56:31 PM 16 9.0 35.0 51 15 73.1 77.1 29.911 20.21 3.7 710 0.00 0.00 0.00 0.00
10/18/19 12:57:25 PM 11 3.0 35.0 51 15 73.1 77.2 29.911 20.21 3.7 708 0.00 0.00 0.00 0.00
10/18/19 12:58:17 PM 11 2.0 35.0 51 15 73.1 77.3 29.909 20.21 3.7 707 0.00 0.00 0.00 0.00
10/18/19 12:59:29 PM 11 3.0 35.0 51 15 73.1 77.3 29.908 20.21 3.7 708 0.00 0.00 0.00 0.00
10/18/19 1:00:17 PM 11 2.0 35.0 51 15 73.1 77.5 29.908 20.21 3.7 708 0.00 0.00 0.00 0.00
10/18/19 1:01:30 PM 10 2.0 35.0 51 15 73.1 77.7 29.905 20.21 3.7 707 0.00 0.00 0.00 0.00
10/18/19 1:02:21 PM 10 4.0 35.0 51 15 73.1 77.9 29.905 20.21 3.7 708 0.00 0.00 0.00 0.00
10/18/19 1:03:33 PM 5 4.0 35.0 51 16 73.1 78.1 29.912 20.21 3.7 705 0.00 0.00 0.00 0.00
10/18/19 1:04:28 PM 344 5.0 35.0 51 15 73.1 78.2 29.907 20.21 3.7 705 0.00 0.00 0.00 0.00
10/18/19 1:05:22 PM 320 10.0 35.0 51 14 73.1 78.6 29.907 20.21 3.7 705 0.00 0.00 0.00 0.00
10/18/19 1:06:25 PM 306 9.0 35.0 51 14 73.1 78.6 29.909 20.21 3.7 705 0.00 0.00 0.00 0.00
10/18/19 1:07:19 PM 299 8.0 35.0 51 14 73.1 78.6 29.909 20.21 3.7 705 0.00 0.00 0.00 0.00
10/18/19 1:08:32 PM 284 6.0 35.0 51 15 73.1 78.6 29.906 20.21 3.7 703 0.00 0.00 0.00 0.00
10/18/19 1:09:23 PM 301 8.0 35.0 51 14 73.1 78.6 29.906 20.21 3.7 703 0.00 0.00 0.00 0.00
10/18/19 1:10:15 PM 291 7.0 35.0 51 14 73.2 78.5 29.903 20.21 3.7 703 0.00 0.00 0.00 0.00
10/18/19 1:11:24 PM 290 5.0 35.0 51 14 73.2 78.5 29.902 20.21 3.7 701 0.00 0.00 0.00 0.00
10/18/19 1:12:15 PM 289 3.0 35.0 51 14 73.2 78.5 29.906 20.21 3.7 701 0.00 0.00 0.00 0.00
10/18/19 1:13:28 PM 293 10.0 35.0 51 14 73.2 78.7 29.902 20.21 3.7 701 0.00 0.00 0.00 0.00
10/18/19 1:14:22 PM 313 4.0 35.0 51 13 73.2 78.7 29.902 20.21 3.7 701 0.00 0.00 0.00 0.00
10/18/19 1:15:38 PM 317 2.0 35.0 51 13 73.2 78.7 29.900 20.21 3.7 701 0.00 0.00 0.00 0.00
10/18/19 1:16:26 PM 317 2.0 35.0 51 12 73.2 78.8 29.900 20.21 3.7 700 0.00 0.00 0.00 0.00
10/18/19 1:17:17 PM 331 9.0 35.0 51 13 73.2 78.8 29.898 20.21 3.7 700 0.00 0.00 0.00 0.00
10/18/19 1:18:30 PM 329 11.0 35.0 51 13 73.3 79.0 29.901 20.21 3.7 700 0.00 0.00 0.00 0.00
10/18/19 1:19:21 PM 314 9.0 35.0 51 13 73.3 78.9 29.901 20.21 3.6 698 0.00 0.00 0.00 0.00
10/18/19 1:20:34 PM 305 7.0 35.0 51 13 73.3 78.9 29.898 20.21 3.6 698 0.00 0.00 0.00 0.00
10/18/19 1:21:25 PM 305 1.0 35.0 51 14 73.3 78.9 29.898 20.21 3.6 696 0.00 0.00 0.00 0.00
10/18/19 1:22:34 PM 305 3.0 35.0 51 14 73.3 78.9 29.898 20.21 3.6 696 0.00 0.00 0.00 0.00
10/18/19 1:23:26 PM 305 2.0 35.0 51 13 73.3 79.0 29.896 20.21 3.6 696 0.00 0.00 0.00 0.00
10/18/19 1:24:17 PM 304 4.0 35.0 51 14 73.3 79.1 29.896 20.21 3.6 691 0.00 0.00 0.00 0.00
10/18/19 1:25:32 PM 302 2.0 35.0 51 13 73.3 79.2 29.894 20.21 3.6 691 0.00 0.00 0.00 0.00
10/18/19 1:26:24 PM 286 9.0 35.0 51 13 73.3 79.3 29.894 20.21 3.6 689 0.00 0.00 0.00 0.00
10/18/19 1:27:33 PM 289 5.0 35.0 51 13 73.4 79.3 29.894 20.21 3.6 689 0.00 0.00 0.00 0.00
10/18/19 1:28:27 PM 321 12.0 35.0 51 13 73.4 79.3 29.894 20.21 3.6 689 0.00 0.00 0.00 0.00
10/18/19 1:29:16 PM 313 14.0 35.0 51 13 73.4 79.3 29.894 20.21 3.6 687 0.00 0.00 0.00 0.00
10/18/19 1:30:28 PM 26 10.0 35.0 51 12 73.4 79.1 29.891 20.21 3.6 689 0.00 0.00 0.00 0.00
10/18/19 1:31:23 PM 5 2.0 35.0 51 13 73.4 79.1 29.891 20.21 3.5 687 0.00 0.00 0.00 0.00
10/18/19 1:32:32 PM 5 2.0 35.0 51 13 73.4 79.2 29.891 20.21 3.5 686 0.00 0.00 0.00 0.00
10/18/19 1:33:23 PM 329 9.0 35.0 51 13 73.4 79.2 29.891 20.21 3.5 686 0.00 0.00 0.00 0.00
10/18/19 1:34:17 PM 329 13.0 35.0 51 13 73.4 79.3 29.892 20.21 3.5 682 0.00 0.00 0.00 0.00
10/18/19 1:35:33 PM 355 11.0 35.0 51 13 73.4 79.4 29.893 20.21 3.5 684 0.00 0.00 0.00 0.00
10/18/19 1:36:24 PM 326 13.0 35.0 51 12 73.4 79.3 29.893 20.21 3.5 686 0.00 0.00 0.00 0.00
10/18/19 1:37:16 PM 318 14.0 35.0 51 13 73.5 79.3 29.890 20.21 3.5 682 0.00 0.00 0.00 0.00
10/18/19 1:38:25 PM 329 12.0 35.0 51 12 73.5 79.1 29.889 20.21 3.4 682 0.00 0.00 0.00 0.00
10/18/19 1:39:16 PM 360 6.0 35.0 51 13 73.5 79.1 29.889 20.21 3.4 680 0.00 0.00 0.00 0.00
10/18/19 1:40:32 PM 324 11.0 35.0 51 13 73.5 79.1 29.889 20.21 3.4 677 0.00 0.00 0.00 0.00
10/18/19 1:41:23 PM 355 3.0 35.0 51 12 73.5 79.0 29.889 20.21 3.4 677 0.00 0.00 0.00 0.00
10/18/19 1:42:36 PM 323 18.0 35.0 51 12 73.5 79.0 29.893 20.21 3.4 679 0.00 0.00 0.00 0.00
10/18/19 1:43:24 PM 360 4.0 35.0 51 12 73.5 79.0 29.893 20.21 3.4 677 0.00 0.00 0.00 0.00
10/18/19 1:44:37 PM 355 6.0 35.0 51 13 73.5 79.1 29.892 20.21 3.3 675 0.00 0.00 0.00 0.00
10/18/19 1:45:34 PM 5 6.0 35.0 51 12 73.5 79.1 29.890 20.21 3.3 675 0.00 0.00 0.00 0.00
10/18/19 1:46:22 PM 319 8.0 35.0 51 13 73.5 79.1 29.890 20.21 3.3 673 0.00 0.00 0.00 0.00
10/18/19 1:47:17 PM 298 10.0 35.0 51 12 73.6 79.1 29.889 20.21 3.3 673 0.00 0.00 0.00 0.00
10/18/19 1:48:29 PM 317 14.0 35.0 51 12 73.5 79.1 29.892 20.21 3.3 670 0.00 0.00 0.00 0.00
10/18/19 1:49:18 PM 332 14.0 35.0 51 12 73.5 79.1 29.892 20.21 3.3 670 0.00 0.00 0.00 0.00
10/18/19 1:50:30 PM 348 8.0 35.0 51 12 73.5 79.2 29.887 20.21 3.3 666 0.00 0.00 0.00 0.00
10/18/19 1:51:21 PM 349 9.0 35.0 51 12 73.5 79.2 29.887 20.21 3.3 663 0.00 0.00 0.00 0.00
10/18/19 1:52:34 PM 347 14.0 35.0 51 13 73.5 79.2 29.887 20.21 3.2 663 0.00 0.00 0.00 0.00
10/18/19 1:53:25 PM 355 10.0 35.0 51 12 73.5 79.2 29.887 20.21 3.2 664 0.00 0.00 0.00 0.00
10/18/19 1:54:35 PM 336 19.0 35.0 51 12 73.6 79.2 29.888 20.21 3.2 664 0.00 0.00 0.00 0.00
10/18/19 1:55:32 PM 303 18.0 35.0 51 12 73.6 79.2 29.890 20.21 3.2 663 0.00 0.00 0.00 0.00
10/18/19 1:56:21 PM 315 20.0 35.0 51 12 73.6 79.1 29.890 20.21 3.2 659 0.00 0.00 0.00 0.00
10/18/19 1:57:33 PM 327 16.0 35.0 51 12 73.6 79.1 29.890 20.21 3.2 657 0.00 0.00 0.00 0.00
10/18/19 1:58:25 PM 333 10.0 35.0 51 12 73.6 79.0 29.890 20.21 3.2 657 0.00 0.00 0.00 0.00
10/18/19 1:59:16 PM 5 9.0 35.0 51 12 73.6 79.1 29.889 20.21 3.1 657 0.00 0.00 0.00 0.00
10/18/19 2:00:25 PM 5 8.0 35.0 51 11 73.6 79.1 29.891 20.21 3.1 656 0.00 0.00 0.00 0.00
10/18/19 2:01:20 PM 9 4.0 35.0 51 11 73.6 79.1 29.891 20.21 3.1 656 0.00 0.00 0.00 0.00
10/18/19 2:02:32 PM 360 6.0 35.0 51 10 73.7 79.3 29.887 20.21 3.1 647 0.00 0.00 0.00 0.00
10/18/19 2:03:24 PM 319 9.0 35.0 51 11 73.7 79.4 29.887 20.21 3.1 647 0.00 0.00 0.00 0.00
10/18/19 2:04:15 PM 320 5.0 35.0 51 11 73.7 79.4 29.887 20.21 3.1 647 0.00 0.00 0.00 0.00
10/18/19 2:05:31 PM 317 10.0 35.0 51 11 73.7 79.5 29.887 20.21 3.1 645 0.00 0.00 0.00 0.00
10/18/19 2:06:19 PM 317 4.0 35.0 51 11 73.7 79.6 29.886 20.21 3.1 643 0.00 0.00 0.00 0.00
10/18/19 2:07:32 PM 321 10.0 35.0 51 11 73.7 79.6 29.884 20.21 3.0 642 0.00 0.00 0.00 0.00
10/18/19 2:08:26 PM 322 6.0 35.0 51 11 73.7 79.6 29.884 20.21 3.0 642 0.00 0.00 0.00 0.00
10/18/19 2:09:18 PM 321 2.0 35.0 51 11 73.7 79.7 29.885 20.21 3.0 640 0.00 0.00 0.00 0.00
10/18/19 2:10:24 PM 343 17.0 35.0 51 11 73.8 79.7 29.887 20.21 3.0 638 0.00 0.00 0.00 0.00
10/18/19 2:11:16 PM 319 9.0 35.0 51 11 73.8 79.8 29.887 20.21 3.0 636 0.00 0.00 0.00 0.00
10/18/19 2:12:28 PM 309 9.0 35.0 51 12 73.8 79.9 29.886 20.21 3.0 635 0.00 0.00 0.00 0.00
10/18/19 2:13:20 PM 320 14.0 35.0 51 12 73.8 79.9 29.886 20.21 3.0 635 0.00 0.00 0.00 0.00
10/18/19 2:14:32 PM 315 9.0 35.0 51 11 73.7 80.0 29.886 20.21 2.9 631 0.00 0.00 0.00 0.00
10/18/19 2:15:29 PM 329 14.0 35.0 51 11 73.8 80.0 29.887 20.21 2.9 631 0.00 0.00 0.00 0.00
10/18/19 2:16:18 PM 351 5.0 35.0 51 11 73.8 80.0 29.887 20.21 2.9 629 0.00 0.00 0.00 0.00
10/18/19 2:17:30 PM 332 8.0 35.0 51 11 73.8 80.0 29.885 20.21 2.9 628 0.00 0.00 0.00 0.00
10/18/19 2:18:22 PM 319 9.0 35.0 51 11 73.8 79.9 29.885 20.21 2.9 628 0.00 0.00 0.00 0.00

University Police wind advisory reference

For campus closure information please call the campus Emergency Hotline at (909) 537-5999

© All rights reserved. Unauthorized duplication or distribution is prohibited

Never base important decisions on this or any weather information obtained from the Internet

California State University, San Bernardino
5500 University Parkway, San Bernardino, CA. 92407
Phone: (909) 537-5108, Email: Weather Webmaster
Last Updated: